Observation data for Canadian on 09/11/2017      Previous  Date  Next       Current Mesonet Observations  Soil Data  Daily Summary Page  Observations in Plain Language
KCA1 110500Z 13007KT 17/11 A3019 RMK A01 T01650109  RH  069%=      5-min Rain = 0
KCA1 110501Z 13007KT 17/11 A302 RMK A01 T01650109  RH  069%=      5-min Rain = 0
KCA1 110502Z 13007KT 16/11 A302 RMK A01 T01640109  RH  070%=      5-min Rain = 0
KCA1 110503Z 13007KT 16/11 A302 RMK A01 T01640108  RH  070%=      5-min Rain = 0
KCA1 110504Z 13007KT 16/11 A302 RMK A01 T01640108  RH  070%=      5-min Rain = 0
KCA1 110505Z 12006KT 16/11 A302 RMK A01 T01630108  RH  070%=      5-min Rain = 0
KCA1 110506Z 13007KT 16/11 A302 RMK A01 T01630108  RH  070%=      5-min Rain = 0
KCA1 110507Z 13007KT 16/11 A302 RMK A01 T01630108  RH  070%=      5-min Rain = 0
KCA1 110508Z 13007KT 16/11 A302 RMK A01 T01630108  RH  070%=      5-min Rain = 0
KCA1 110509Z 13007KT 16/11 A302 RMK A01 T01630108  RH  070%=      5-min Rain = 0
KCA1 110510Z 13007KT 16/11 A302 RMK A01 T01630108  RH  070%=      5-min Rain = 0
KCA1 110511Z 12007KT 16/11 A302 RMK A01 T01630108  RH  070%=      5-min Rain = 0
KCA1 110512Z 12007KT 16/11 A302 RMK A01 T01640108  RH  070%=      5-min Rain = 0
KCA1 110513Z 12007KT 16/11 A302 RMK A01 T01640108  RH  070%=      5-min Rain = 0
KCA1 110514Z 12007KT 16/11 A302 RMK A01 T01640108  RH  070%=      5-min Rain = 0
KCA1 110515Z 12007KT 16/11 A302 RMK A01 T01640108  RH  070%=      5-min Rain = 0
KCA1 110516Z 12007KT 16/11 A302 RMK A01 T01640108  RH  070%=      5-min Rain = 0
KCA1 110517Z 12007KT 16/11 A302 RMK A01 T01640108  RH  070%=      5-min Rain = 0
KCA1 110518Z 13006KT 16/11 A302 RMK A01 T01640108  RH  069%=      5-min Rain = 0
KCA1 110519Z 13006KT 16/11 A302 RMK A01 T01640108  RH  069%=      5-min Rain = 0
KCA1 110520Z 12006KT 16/11 A302 RMK A01 T01640108  RH  069%=      5-min Rain = 0
KCA1 110521Z 12006KT 16/11 A302 RMK A01 T01640108  RH  069%=      5-min Rain = 0
KCA1 110522Z 12006KT 16/11 A302 RMK A01 T01640108  RH  069%=      5-min Rain = 0
KCA1 110523Z 12006KT 16/11 A302 RMK A01 T01640108  RH  070%=      5-min Rain = 0
KCA1 110524Z 13006KT 16/11 A302 RMK A01 T01640108  RH  070%=      5-min Rain = 0
KCA1 110525Z 12006KT 16/11 A302 RMK A01 T01640108  RH  070%=      5-min Rain = 0
KCA1 110526Z 12006KT 16/11 A302 RMK A01 T01640108  RH  070%=      5-min Rain = 0
KCA1 110527Z 12006KT 16/11 A302 RMK A01 T01640108  RH  070%=      5-min Rain = 0
KCA1 110528Z 12006KT 16/11 A302 RMK A01 T01640108  RH  070%=      5-min Rain = 0
KCA1 110529Z 12006KT 16/11 A302 RMK A01 T01640108  RH  070%=      5-min Rain = 0
KCA1 110530Z 12006KT 16/11 A302 RMK A01 T01630108  RH  070%=      5-min Rain = 0
KCA1 110531Z 12006KT 16/11 A302 RMK A01 T01630108  RH  070%=      5-min Rain = 0
KCA1 110532Z 12007KT 16/11 A302 RMK A01 T01620107  RH  070%=      5-min Rain = 0
KCA1 110533Z 12006KT 16/11 A302 RMK A01 T01620107  RH  070%=      5-min Rain = 0
KCA1 110534Z 11006KT 16/11 A302 RMK A01 T01610107  RH  071%=      5-min Rain = 0
KCA1 110535Z 12006KT 16/11 A302 RMK A01 T01590107  RH  071%=      5-min Rain = 0
KCA1 110536Z 12007KT 16/11 A302 RMK A01 T01590107  RH  071%=      5-min Rain = 0
KCA1 110537Z 12007KT 16/11 A302 RMK A01 T01580107  RH  071%=      5-min Rain = 0
KCA1 110538Z 13007KT 16/11 A302 RMK A01 T01590107  RH  071%=      5-min Rain = 0
KCA1 110539Z 13007KT 16/11 A302 RMK A01 T01600107  RH  071%=      5-min Rain = 0
KCA1 110540Z 13007KT 16/11 A302 RMK A01 T01610108  RH  071%=      5-min Rain = 0
KCA1 110541Z 13006KT 16/11 A302 RMK A01 T01620108  RH  070%=      5-min Rain = 0
KCA1 110542Z 13006KT 16/11 A302 RMK A01 T01630108  RH  070%=      5-min Rain = 0
KCA1 110543Z 13007KT 16/11 A302 RMK A01 T01630108  RH  070%=      5-min Rain = 0
KCA1 110544Z 13006KT 16/11 A302 RMK A01 T01630108  RH  070%=      5-min Rain = 0
KCA1 110545Z 13007KT 16/11 A302 RMK A01 T01630108  RH  070%=      5-min Rain = 0
KCA1 110546Z 13007KT 16/11 A302 RMK A01 T01630108  RH  070%=      5-min Rain = 0
KCA1 110547Z 13007KT 16/11 A302 RMK A01 T01620107  RH  070%=      5-min Rain = 0
KCA1 110548Z 13007KT 16/11 A3019 RMK A01 T01620107  RH  070%=      5-min Rain = 0
KCA1 110549Z 13007KT 16/11 A3019 RMK A01 T01620108  RH  070%=      5-min Rain = 0
KCA1 110550Z 12007KT 16/11 A3019 RMK A01 T01620108  RH  070%=      5-min Rain = 0
KCA1 110551Z 12007KT 16/11 A3019 RMK A01 T01610107  RH  070%=      5-min Rain = 0
KCA1 110552Z 12007KT 16/11 A3019 RMK A01 T01610107  RH  070%=      5-min Rain = 0
KCA1 110553Z 12007KT 16/11 A3019 RMK A01 T01610107  RH  071%=      5-min Rain = 0
KCA1 110554Z 13007KT 16/11 A3019 RMK A01 T01610108  RH  071%=      5-min Rain = 0
KCA1 110555Z 12006KT 16/11 A3019 RMK A01 T01610108  RH  071%=      5-min Rain = 0
KCA1 110556Z 13007KT 16/11 A3019 RMK A01 T01610108  RH  071%=      5-min Rain = 0
KCA1 110557Z 13007KT 16/11 A3019 RMK A01 T01610107  RH  071%=      5-min Rain = 0
KCA1 110558Z 13007KT 16/11 A3019 RMK A01 T01610108  RH  071%=      5-min Rain = 0
KCA1 110559Z 13007KT 16/11 A3019 RMK A01 T01610107  RH  070%=      5-min Rain = 0
KCA1 110600Z 13006KT 16/11 A3019 RMK A01 T01610107  RH  070%=      5-min Rain = 0
KCA1 110601Z 13006KT 16/11 A3019 RMK A01 T01610107  RH  071%=      5-min Rain = 0
KCA1 110602Z 13006KT 16/11 A3019 RMK A01 T01610108  RH  071%=      5-min Rain = 0
KCA1 110603Z 13006KT 16/11 A3019 RMK A01 T01600107  RH  071%=      5-min Rain = 0
KCA1 110604Z 14006KT 16/11 A3019 RMK A01 T01600107  RH  071%=      5-min Rain = 0
KCA1 110605Z 13006KT 16/11 A3019 RMK A01 T01600107  RH  071%=      5-min Rain = 0
KCA1 110606Z 13006KT 16/11 A3019 RMK A01 T01600107  RH  071%=      5-min Rain = 0
KCA1 110607Z 13006KT 16/11 A3019 RMK A01 T01590107  RH  071%=      5-min Rain = 0
KCA1 110608Z 13006KT 16/11 A3019 RMK A01 T01580107  RH  072%=      5-min Rain = 0
KCA1 110609Z 13006KT 16/11 A3019 RMK A01 T01580107  RH  072%=      5-min Rain = 0
KCA1 110610Z 13006KT 16/11 A3019 RMK A01 T01580107  RH  072%=      5-min Rain = 0
KCA1 110611Z 13006KT 16/11 A3019 RMK A01 T01580107  RH  072%=      5-min Rain = 0
KCA1 110612Z 13006KT 16/11 A3019 RMK A01 T01570107  RH  072%=      5-min Rain = 0
KCA1 110613Z 13007KT 16/11 A3019 RMK A01 T01570107  RH  072%=      5-min Rain = 0
KCA1 110614Z 13007KT 16/11 A3019 RMK A01 T01570107  RH  072%=      5-min Rain = 0
KCA1 110615Z 13006KT 16/11 A3019 RMK A01 T01570107  RH  072%=      5-min Rain = 0
KCA1 110616Z 13007KT 16/11 A3019 RMK A01 T01570107  RH  072%=      5-min Rain = 0
KCA1 110617Z 13007KT 16/11 A3019 RMK A01 T01570107  RH  072%=      5-min Rain = 0
KCA1 110618Z 13007KT 16/11 A3019 RMK A01 T01570107  RH  072%=      5-min Rain = 0
KCA1 110619Z 13007KT 16/11 A3019 RMK A01 T01570107  RH  072%=      5-min Rain = 0
KCA1 110620Z 13007KT 16/11 A3019 RMK A01 T01570107  RH  072%=      5-min Rain = 0
KCA1 110621Z 13007KT 16/11 A3019 RMK A01 T01570107  RH  072%=      5-min Rain = 0
KCA1 110622Z 13007KT 16/11 A3019 RMK A01 T01570107  RH  072%=      5-min Rain = 0
KCA1 110623Z 13007KT 16/11 A3019 RMK A01 T01560107  RH  072%=      5-min Rain = 0
KCA1 110624Z 13007KT 16/11 A3019 RMK A01 T01560107  RH  072%=      5-min Rain = 0
KCA1 110625Z 13007KT 16/11 A3019 RMK A01 T01560106  RH  072%=      5-min Rain = 0
KCA1 110626Z 13007KT 16/11 A3019 RMK A01 T01560107  RH  072%=      5-min Rain = 0
KCA1 110627Z 13007KT 16/11 A3019 RMK A01 T01560106  RH  072%=      5-min Rain = 0
KCA1 110628Z 13007KT 16/11 A3019 RMK A01 T01560106  RH  072%=      5-min Rain = 0
KCA1 110629Z 13007KT 16/11 A3019 RMK A01 T01560106  RH  072%=      5-min Rain = 0
KCA1 110630Z 13007KT 16/11 A3019 RMK A01 T01560107  RH  072%=      5-min Rain = 0
KCA1 110631Z 13007KT 16/11 A3019 RMK A01 T01560107  RH  072%=      5-min Rain = 0
KCA1 110632Z 14007KT 16/11 A3019 RMK A01 T01560106  RH  072%=      5-min Rain = 0
KCA1 110633Z 13007KT 16/11 A3019 RMK A01 T01560106  RH  072%=      5-min Rain = 0
KCA1 110634Z 13007KT 16/11 A3019 RMK A01 T01570106  RH  072%=      5-min Rain = 0
KCA1 110635Z 13007KT 16/11 A3019 RMK A01 T01560106  RH  072%=      5-min Rain = 0
KCA1 110636Z 13007KT 16/11 A3019 RMK A01 T01570106  RH  072%=      5-min Rain = 0
KCA1 110637Z 13007KT 16/11 A3019 RMK A01 T01570106  RH  072%=      5-min Rain = 0
KCA1 110638Z 13007KT 16/11 A3019 RMK A01 T01570106  RH  072%=      5-min Rain = 0
KCA1 110639Z 13006KT 16/11 A3019 RMK A01 T01570106  RH  072%=      5-min Rain = 0
KCA1 110640Z 13006KT 16/11 A3019 RMK A01 T01570106  RH  072%=      5-min Rain = 0
KCA1 110641Z 13006KT 16/11 A3019 RMK A01 T01580106  RH  072%=      5-min Rain = 0
KCA1 110642Z 14007KT 16/11 A3019 RMK A01 T01580106  RH  071%=      5-min Rain = 0
KCA1 110643Z 14006KT 16/11 A3019 RMK A01 T01580106  RH  071%=      5-min Rain = 0
KCA1 110644Z 14007KT 16/11 A3019 RMK A01 T01590107  RH  071%=      5-min Rain = 0
KCA1 110645Z 14007KT 16/11 A3019 RMK A01 T01590107  RH  071%=      5-min Rain = 0
KCA1 110646Z 14007KT 16/11 A3019 RMK A01 T01590107  RH  071%=      5-min Rain = 0
KCA1 110647Z 14006KT 16/11 A3019 RMK A01 T01590106  RH  071%=      5-min Rain = 0
KCA1 110648Z 14006KT 16/11 A3019 RMK A01 T01600107  RH  071%=      5-min Rain = 0
KCA1 110649Z 14006KT 16/11 A3019 RMK A01 T01600106  RH  071%=      5-min Rain = 0
KCA1 110650Z 14006KT 16/11 A3019 RMK A01 T01590106  RH  071%=      5-min Rain = 0
KCA1 110651Z 14006KT 16/11 A3019 RMK A01 T01600107  RH  071%=      5-min Rain = 0
KCA1 110652Z 14006KT 16/11 A3019 RMK A01 T01600107  RH  071%=      5-min Rain = 0
KCA1 110653Z 14005KT 16/11 A3019 RMK A01 T01590107  RH  071%=      5-min Rain = 0
KCA1 110654Z 14005KT 16/11 A3019 RMK A01 T01590107  RH  071%=      5-min Rain = 0
KCA1 110655Z 13006KT 16/11 A3019 RMK A01 T01580107  RH  071%=      5-min Rain = 0
KCA1 110656Z 14005KT 16/11 A3019 RMK A01 T01570106  RH  072%=      5-min Rain = 0
KCA1 110657Z 14006KT 16/11 A3019 RMK A01 T01570106  RH  072%=      5-min Rain = 0
KCA1 110658Z 14005KT 16/11 A3019 RMK A01 T01570106  RH  072%=      5-min Rain = 0
KCA1 110659Z 14006KT 16/11 A3019 RMK A01 T01560106  RH  072%=      5-min Rain = 0
KCA1 110700Z 14006KT 16/11 A3019 RMK A01 T01570107  RH  072%=      5-min Rain = 0
KCA1 110701Z 13005KT 16/11 A3019 RMK A01 T01560107  RH  072%=      5-min Rain = 0
KCA1 110702Z 14005KT 16/11 A3019 RMK A01 T01560107  RH  072%=      5-min Rain = 0
KCA1 110703Z 14006KT 16/11 A3019 RMK A01 T01560107  RH  072%=      5-min Rain = 0
KCA1 110704Z 14005KT 16/11 A3019 RMK A01 T01560107  RH  072%=      5-min Rain = 0
KCA1 110705Z 14005KT 16/11 A3019 RMK A01 T01560107  RH  073%=      5-min Rain = 0
KCA1 110706Z 13006KT 16/11 A3019 RMK A01 T01550106  RH  073%=      5-min Rain = 0
KCA1 110707Z 14006KT 16/11 A3019 RMK A01 T01550106  RH  073%=      5-min Rain = 0
KCA1 110708Z 13006KT 15/11 A3019 RMK A01 T01540106  RH  073%=      5-min Rain = 0
KCA1 110709Z 13006KT 15/11 A3019 RMK A01 T01540106  RH  073%=      5-min Rain = 0
KCA1 110710Z 14006KT 16/11 A3019 RMK A01 T01550107  RH  073%=      5-min Rain = 0
KCA1 110711Z 14006KT 15/11 A3019 RMK A01 T01540107  RH  073%=      5-min Rain = 0
KCA1 110712Z 14005KT 15/11 A3019 RMK A01 T01540107  RH  073%=      5-min Rain = 0
KCA1 110713Z 14005KT 15/11 A3019 RMK A01 T01540107  RH  073%=      5-min Rain = 0
KCA1 110714Z 14005KT 15/11 A3019 RMK A01 T01540106  RH  073%=      5-min Rain = 0
KCA1 110715Z 14005KT 15/11 A3019 RMK A01 T01530106  RH  073%=      5-min Rain = 0
KCA1 110716Z 14005KT 15/11 A3019 RMK A01 T01530107  RH  074%=      5-min Rain = 0
KCA1 110717Z 14005KT 15/11 A3019 RMK A01 T01530106  RH  074%=      5-min Rain = 0
KCA1 110718Z 14005KT 15/11 A3019 RMK A01 T01530106  RH  074%=      5-min Rain = 0
KCA1 110719Z 14005KT 15/11 A3019 RMK A01 T01530106  RH  074%=      5-min Rain = 0
KCA1 110720Z 14005KT 15/11 A3019 RMK A01 T01530106  RH  074%=      5-min Rain = 0
KCA1 110721Z 14005KT 15/11 A3019 RMK A01 T01530106  RH  074%=      5-min Rain = 0
KCA1 110722Z 14004KT 15/11 A3019 RMK A01 T01530106  RH  074%=      5-min Rain = 0
KCA1 110723Z 14005KT 15/11 A3019 RMK A01 T01520106  RH  074%=      5-min Rain = 0
KCA1 110724Z 14005KT 15/11 A3019 RMK A01 T01520106  RH  074%=      5-min Rain = 0
KCA1 110725Z 14005KT 15/11 A3019 RMK A01 T01520106  RH  074%=      5-min Rain = 0
KCA1 110726Z 14006KT 15/11 A3019 RMK A01 T01530106  RH  073%=      5-min Rain = 0
KCA1 110727Z 14005KT 15/11 A3019 RMK A01 T01540105  RH  073%=      5-min Rain = 0
KCA1 110728Z 14005KT 16/11 A3019 RMK A01 T01560106  RH  072%=      5-min Rain = 0
KCA1 110729Z 14005KT 16/11 A3019 RMK A01 T01560106  RH  072%=      5-min Rain = 0
KCA1 110730Z 14005KT 16/11 A3019 RMK A01 T01560106  RH  072%=      5-min Rain = 0
KCA1 110731Z 14005KT 16/11 A3019 RMK A01 T01560106  RH  072%=      5-min Rain = 0
KCA1 110732Z 14005KT 16/11 A3019 RMK A01 T01560106  RH  072%=      5-min Rain = 0
KCA1 110733Z 13005KT 16/11 A3019 RMK A01 T01560106  RH  072%=      5-min Rain = 0
KCA1 110734Z 14005KT 16/11 A3019 RMK A01 T01570106  RH  072%=      5-min Rain = 0
KCA1 110735Z 14005KT 16/11 A3019 RMK A01 T01560105  RH  072%=      5-min Rain = 0
KCA1 110736Z 14005KT 16/11 A3019 RMK A01 T01560105  RH  071%=      5-min Rain = 0
KCA1 110737Z 13005KT 16/11 A3019 RMK A01 T01570105  RH  071%=      5-min Rain = 0
KCA1 110738Z 13005KT 16/11 A3019 RMK A01 T01570105  RH  071%=      5-min Rain = 0
KCA1 110739Z 13005KT 16/11 A3019 RMK A01 T01570105  RH  071%=      5-min Rain = 0
KCA1 110740Z 13006KT 16/11 A3019 RMK A01 T01560105  RH  071%=      5-min Rain = 0
KCA1 110741Z 13006KT 16/11 A3019 RMK A01 T01560105  RH  072%=      5-min Rain = 0
KCA1 110742Z 13006KT 16/11 A3019 RMK A01 T01560105  RH  072%=      5-min Rain = 0
KCA1 110743Z 13007KT 16/11 A3019 RMK A01 T01560105  RH  072%=      5-min Rain = 0
KCA1 110744Z 13006KT 16/11 A3019 RMK A01 T01560105  RH  072%=      5-min Rain = 0
KCA1 110745Z 13006KT 16/10 A3019 RMK A01 T01560104  RH  071%=      5-min Rain = 0
KCA1 110746Z 13006KT 16/11 A3019 RMK A01 T01560105  RH  071%=      5-min Rain = 0
KCA1 110747Z 12006KT 16/11 A3019 RMK A01 T01560105  RH  071%=      5-min Rain = 0
KCA1 110748Z 13006KT 16/10 A3019 RMK A01 T01560104  RH  071%=      5-min Rain = 0
KCA1 110749Z 12006KT 16/10 A3019 RMK A01 T01560104  RH  071%=      5-min Rain = 0
KCA1 110750Z 13006KT 16/10 A3019 RMK A01 T01560104  RH  071%=      5-min Rain = 0
KCA1 110751Z 12006KT 16/10 A3019 RMK A01 T01560104  RH  071%=      5-min Rain = 0
KCA1 110752Z 12006KT 16/11 A3019 RMK A01 T01570105  RH  071%=      5-min Rain = 0
KCA1 110753Z 13007KT 16/11 A3019 RMK A01 T01570105  RH  071%=      5-min Rain = 0
KCA1 110754Z 12006KT 16/10 A3019 RMK A01 T01560104  RH  071%=      5-min Rain = 0
KCA1 110755Z 12006KT 16/11 A3019 RMK A01 T01560105  RH  071%=      5-min Rain = 0
KCA1 110756Z 13006KT 16/10 A3019 RMK A01 T01560104  RH  071%=      5-min Rain = 0
KCA1 110757Z 13006KT 16/10 A3019 RMK A01 T01550104  RH  071%=      5-min Rain = 0
KCA1 110758Z 12006KT 16/10 A3019 RMK A01 T01560104  RH  071%=      5-min Rain = 0
KCA1 110759Z 12006KT 16/10 A3019 RMK A01 T01550104  RH  072%=      5-min Rain = 0
KCA1 110800Z 12007KT 16/10 A3019 RMK A01 T01550104  RH  072%=      5-min Rain = 0
KCA1 110801Z 12007KT 16/10 A3019 RMK A01 T01550104  RH  072%=      5-min Rain = 0
KCA1 110802Z 13007KT 16/10 A3019 RMK A01 T01550104  RH  072%=      5-min Rain = 0
KCA1 110803Z 12007KT 15/10 A3019 RMK A01 T01540104  RH  072%=      5-min Rain = 0
KCA1 110804Z 13007KT 16/10 A3019 RMK A01 T01550104  RH  072%=      5-min Rain = 0
KCA1 110805Z 13007KT 15/10 A3019 RMK A01 T01540104  RH  072%=      5-min Rain = 0
KCA1 110806Z 13006KT 16/10 A3019 RMK A01 T01550104  RH  072%=      5-min Rain = 0
KCA1 110807Z 13006KT 16/10 A3019 RMK A01 T01550104  RH  072%=      5-min Rain = 0
KCA1 110808Z 13006KT 16/10 A3019 RMK A01 T01550104  RH  072%=      5-min Rain = 0
KCA1 110809Z 13006KT 16/10 A3019 RMK A01 T01550104  RH  072%=      5-min Rain = 0
KCA1 110810Z 13006KT 15/10 A3019 RMK A01 T01540104  RH  072%=      5-min Rain = 0
KCA1 110811Z 13006KT 15/10 A3019 RMK A01 T01540103  RH  072%=      5-min Rain = 0
KCA1 110812Z 13006KT 15/10 A3018 RMK A01 T01540103  RH  072%=      5-min Rain = 0
KCA1 110813Z 13006KT 15/10 A3018 RMK A01 T01540103  RH  072%=      5-min Rain = 0
KCA1 110814Z 13006KT 15/10 A3018 RMK A01 T01540103  RH  072%=      5-min Rain = 0
KCA1 110815Z 13006KT 15/10 A3018 RMK A01 T01540103  RH  072%=      5-min Rain = 0
KCA1 110816Z 13006KT 15/10 A3018 RMK A01 T01540103  RH  072%=      5-min Rain = 0
KCA1 110817Z 13005KT 15/10 A3018 RMK A01 T01540103  RH  072%=      5-min Rain = 0
KCA1 110818Z 13005KT 15/10 A3018 RMK A01 T01540103  RH  071%=      5-min Rain = 0
KCA1 110819Z 13005KT 15/10 A3018 RMK A01 T01540103  RH  071%=      5-min Rain = 0
KCA1 110820Z 13005KT 15/10 A3018 RMK A01 T01540103  RH  071%=      5-min Rain = 0
KCA1 110821Z 13006KT 15/10 A3018 RMK A01 T01540102  RH  071%=      5-min Rain = 0
KCA1 110822Z 13006KT 15/10 A3018 RMK A01 T01540102  RH  071%=      5-min Rain = 0
KCA1 110823Z 14006KT 15/10 A3018 RMK A01 T01540102  RH  071%=      5-min Rain = 0
KCA1 110824Z 14006KT 15/10 A3018 RMK A01 T01540102  RH  071%=      5-min Rain = 0
KCA1 110825Z 14006KT 15/10 A3018 RMK A01 T01530101  RH  071%=      5-min Rain = 0
KCA1 110826Z 14006KT 15/10 A3018 RMK A01 T01540102  RH  071%=      5-min Rain = 0
KCA1 110827Z 13006KT 15/10 A3018 RMK A01 T01540102  RH  071%=      5-min Rain = 0
KCA1 110828Z 14006KT 15/10 A3018 RMK A01 T01540102  RH  071%=      5-min Rain = 0
KCA1 110829Z 13006KT 15/10 A3018 RMK A01 T01540102  RH  071%=      5-min Rain = 0
KCA1 110830Z 13006KT 15/10 A3018 RMK A01 T01540102  RH  071%=      5-min Rain = 0
KCA1 110831Z 13006KT 15/10 A3018 RMK A01 T01530102  RH  071%=      5-min Rain = 0
KCA1 110832Z 13006KT 15/10 A3018 RMK A01 T01530102  RH  071%=      5-min Rain = 0
KCA1 110833Z 13006KT 15/10 A3018 RMK A01 T01530102  RH  071%=      5-min Rain = 0
KCA1 110834Z 12006KT 15/10 A3018 RMK A01 T01530102  RH  071%=      5-min Rain = 0
KCA1 110835Z 12006KT 15/10 A3018 RMK A01 T01520101  RH  072%=      5-min Rain = 0
KCA1 110836Z 13006KT 15/10 A3018 RMK A01 T01520101  RH  072%=      5-min Rain = 0
KCA1 110837Z 13006KT 15/10 A3018 RMK A01 T01520101  RH  072%=      5-min Rain = 0
KCA1 110838Z 13007KT 15/10 A3018 RMK A01 T01520101  RH  072%=      5-min Rain = 0
KCA1 110839Z 13007KT 15/10 A3018 RMK A01 T01520101  RH  071%=      5-min Rain = 0
KCA1 110840Z 13007KT 15/10 A3018 RMK A01 T01530101  RH  071%=      5-min Rain = 0
KCA1 110841Z 13007KT 15/10 A3018 RMK A01 T01530101  RH  071%=      5-min Rain = 0
KCA1 110842Z 13007KT 15/10 A3018 RMK A01 T01530101  RH  071%=      5-min Rain = 0
KCA1 110843Z 13006KT 15/10 A3018 RMK A01 T01530101  RH  071%=      5-min Rain = 0
KCA1 110844Z 13006KT 15/10 A3018 RMK A01 T01530101  RH  071%=      5-min Rain = 0
KCA1 110845Z 12006KT 15/10 A3018 RMK A01 T01530101  RH  071%=      5-min Rain = 0
KCA1 110846Z 13006KT 15/10 A3018 RMK A01 T01530101  RH  071%=      5-min Rain = 0
KCA1 110847Z 13006KT 15/10 A3018 RMK A01 T01530101  RH  071%=      5-min Rain = 0
KCA1 110848Z 13006KT 15/10 A3018 RMK A01 T01530101  RH  071%=      5-min Rain = 0
KCA1 110849Z 12006KT 15/10 A3018 RMK A01 T01520101  RH  071%=      5-min Rain = 0
KCA1 110850Z 12006KT 15/10 A3018 RMK A01 T01520101  RH  071%=      5-min Rain = 0
KCA1 110851Z 12005KT 15/10 A3018 RMK A01 T01520100  RH  071%=      5-min Rain = 0
KCA1 110852Z 13006KT 15/10 A3018 RMK A01 T01520101  RH  072%=      5-min Rain = 0
KCA1 110853Z 13005KT 15/10 A3018 RMK A01 T01510100  RH  072%=      5-min Rain = 0
KCA1 110854Z 13005KT 15/10 A3018 RMK A01 T01510101  RH  072%=      5-min Rain = 0
KCA1 110855Z 13005KT 15/10 A3018 RMK A01 T01510100  RH  072%=      5-min Rain = 0
KCA1 110856Z 13005KT 15/10 A3018 RMK A01 T01510100  RH  072%=      5-min Rain = 0
KCA1 110857Z 14005KT 15/10 A3018 RMK A01 T01500100  RH  072%=      5-min Rain = 0
KCA1 110858Z 13005KT 15/10 A3018 RMK A01 T01490100  RH  072%=      5-min Rain = 0
KCA1 110859Z 13004KT 15/10 A3018 RMK A01 T01490100  RH  072%=      5-min Rain = 0
KCA1 110900Z 13005KT 15/10 A3018 RMK A01 T01480099  RH  073%=      5-min Rain = 0
KCA1 110901Z 14005KT 15/10 A3018 RMK A01 T01470099  RH  073%=      5-min Rain = 0
KCA1 110902Z 14005KT 15/10 A3018 RMK A01 T01470099  RH  073%=      5-min Rain = 0
KCA1 110903Z 14005KT 15/10 A3018 RMK A01 T01470099  RH  073%=      5-min Rain = 0
KCA1 110904Z 14005KT 15/10 A3018 RMK A01 T01470099  RH  073%=      5-min Rain = 0
KCA1 110905Z 14005KT 15/10 A3018 RMK A01 T01480099  RH  073%=      5-min Rain = 0
KCA1 110906Z 14005KT 15/10 A3018 RMK A01 T01480099  RH  073%=      5-min Rain = 0
KCA1 110907Z 14005KT 15/10 A3018 RMK A01 T01480099  RH  072%=      5-min Rain = 0
KCA1 110908Z 14005KT 15/10 A3018 RMK A01 T01490099  RH  072%=      5-min Rain = 0
KCA1 110909Z 14005KT 15/10 A3018 RMK A01 T01490099  RH  072%=      5-min Rain = 0
KCA1 110910Z 14005KT 15/10 A3018 RMK A01 T01490099  RH  072%=      5-min Rain = 0
KCA1 110911Z 14005KT 15/10 A3018 RMK A01 T01490099  RH  072%=      5-min Rain = 0
KCA1 110912Z 14005KT 15/10 A3018 RMK A01 T01490100  RH  072%=      5-min Rain = 0
KCA1 110913Z 14005KT 15/10 A3018 RMK A01 T01490099  RH  072%=      5-min Rain = 0
KCA1 110914Z 14005KT 15/10 A3017 RMK A01 T01490099  RH  072%=      5-min Rain = 0
KCA1 110915Z 13005KT 15/10 A3017 RMK A01 T01490099  RH  072%=      5-min Rain = 0
KCA1 110916Z 13005KT 15/10 A3017 RMK A01 T01490099  RH  072%=      5-min Rain = 0
KCA1 110917Z 13005KT 15/10 A3018 RMK A01 T01490099  RH  072%=      5-min Rain = 0
KCA1 110918Z 13005KT 15/10 A3018 RMK A01 T01490099  RH  072%=      5-min Rain = 0
KCA1 110919Z 13005KT 15/10 A3018 RMK A01 T01480099  RH  072%=      5-min Rain = 0
KCA1 110920Z 13005KT 15/10 A3018 RMK A01 T01480099  RH  073%=      5-min Rain = 0
KCA1 110921Z 13005KT 15/10 A3018 RMK A01 T01470099  RH  073%=      5-min Rain = 0
KCA1 110922Z 13005KT 15/10 A3018 RMK A01 T01470099  RH  073%=      5-min Rain = 0
KCA1 110923Z 13004KT 15/10 A3018 RMK A01 T01460099  RH  073%=      5-min Rain = 0
KCA1 110924Z 13004KT 15/10 A3018 RMK A01 T01450100  RH  074%=      5-min Rain = 0
KCA1 110925Z 13004KT 15/10 A3018 RMK A01 T01450099  RH  074%=      5-min Rain = 0
KCA1 110926Z 12005KT 15/10 A3018 RMK A01 T01450099  RH  074%=      5-min Rain = 0
KCA1 110927Z 13005KT 14/10 A3018 RMK A01 T01440099  RH  074%=      5-min Rain = 0
KCA1 110928Z 13005KT 14/10 A3018 RMK A01 T01440099  RH  074%=      5-min Rain = 0
KCA1 110929Z 12005KT 14/10 A3018 RMK A01 T01430099  RH  075%=      5-min Rain = 0
KCA1 110930Z 12005KT 14/10 A3018 RMK A01 T01420099  RH  075%=      5-min Rain = 0
KCA1 110931Z 12005KT 14/10 A3018 RMK A01 T01420099  RH  075%=      5-min Rain = 0
KCA1 110932Z 12005KT 14/10 A3018 RMK A01 T01410099  RH  076%=      5-min Rain = 0
KCA1 110933Z 12005KT 14/10 A3018 RMK A01 T01410099  RH  076%=      5-min Rain = 0
KCA1 110934Z 13005KT 14/10 A3018 RMK A01 T01410099  RH  076%=      5-min Rain = 0
KCA1 110935Z 12004KT 14/10 A3018 RMK A01 T01410099  RH  076%=      5-min Rain = 0
KCA1 110936Z 12005KT 14/10 A3017 RMK A01 T01400099  RH  076%=      5-min Rain = 0
KCA1 110937Z 12004KT 14/10 A3017 RMK A01 T01400099  RH  076%=      5-min Rain = 0
KCA1 110938Z 13004KT 14/10 A3017 RMK A01 T01390099  RH  077%=      5-min Rain = 0
KCA1 110939Z 13004KT 14/10 A3017 RMK A01 T01390099  RH  077%=      5-min Rain = 0
KCA1 110940Z 13005KT 14/10 A3017 RMK A01 T01390099  RH  077%=      5-min Rain = 0
KCA1 110941Z 14005KT 14/10 A3017 RMK A01 T01390098  RH  076%=      5-min Rain = 0
KCA1 110942Z 14004KT 14/10 A3017 RMK A01 T01390098  RH  076%=      5-min Rain = 0
KCA1 110943Z 14004KT 14/10 A3017 RMK A01 T01390098  RH  076%=      5-min Rain = 0
KCA1 110944Z 14005KT 14/10 A3018 RMK A01 T01400099  RH  076%=      5-min Rain = 0
KCA1 110945Z 14005KT 14/10 A3018 RMK A01 T01400099  RH  076%=      5-min Rain = 0
KCA1 110946Z 13004KT 14/10 A3018 RMK A01 T01410098  RH  076%=      5-min Rain = 0
KCA1 110947Z 13004KT 14/10 A3018 RMK A01 T01410098  RH  075%=      5-min Rain = 0
KCA1 110948Z 14004KT 14/10 A3018 RMK A01 T01410099  RH  076%=      5-min Rain = 0
KCA1 110949Z 14004KT 14/10 A3018 RMK A01 T01410098  RH  076%=      5-min Rain = 0
KCA1 110950Z 14004KT 14/10 A3018 RMK A01 T01410099  RH  075%=      5-min Rain = 0
KCA1 110951Z 15004KT 14/10 A3018 RMK A01 T01420099  RH  075%=      5-min Rain = 0
KCA1 110952Z 15005KT 14/10 A3018 RMK A01 T01430099  RH  075%=      5-min Rain = 0
KCA1 110953Z 15005KT 14/10 A3017 RMK A01 T01440099  RH  074%=      5-min Rain = 0
KCA1 110954Z 15005KT 14/10 A3017 RMK A01 T01440099  RH  074%=      5-min Rain = 0
KCA1 110955Z 15004KT 15/10 A3018 RMK A01 T01450099  RH  074%=      5-min Rain = 0
KCA1 110956Z 15004KT 15/10 A3018 RMK A01 T01460099  RH  073%=      5-min Rain = 0
KCA1 110957Z 15004KT 15/10 A3018 RMK A01 T01460099  RH  073%=      5-min Rain = 0
KCA1 110958Z 15004KT 15/10 A3018 RMK A01 T01460099  RH  073%=      5-min Rain = 0
KCA1 110959Z 14004KT 15/10 A3018 RMK A01 T01470099  RH  073%=      5-min Rain = 0
KCA1 111000Z 15004KT 15/10 A3018 RMK A01 T01470098  RH  073%=      5-min Rain = 0
KCA1 111001Z 14004KT 15/10 A3018 RMK A01 T01470098  RH  073%=      5-min Rain = 0
KCA1 111002Z 14004KT 15/10 A3018 RMK A01 T01470098  RH  073%=      5-min Rain = 0
KCA1 111003Z 14004KT 15/10 A3018 RMK A01 T01470099  RH  072%=      5-min Rain = 0
KCA1 111004Z 14004KT 15/10 A3018 RMK A01 T01470098  RH  072%=      5-min Rain = 0
KCA1 111005Z 13004KT 15/10 A3018 RMK A01 T01470098  RH  072%=      5-min Rain = 0
KCA1 111006Z 13004KT 15/10 A3018 RMK A01 T01470098  RH  072%=      5-min Rain = 0
KCA1 111007Z 13004KT 15/10 A3018 RMK A01 T01470098  RH  072%=      5-min Rain = 0
KCA1 111008Z 13004KT 15/10 A3018 RMK A01 T01460098  RH  073%=      5-min Rain = 0
KCA1 111009Z 13004KT 14/10 A3018 RMK A01 T01440097  RH  074%=      5-min Rain = 0
KCA1 111010Z 13005KT 14/10 A3018 RMK A01 T01420097  RH  074%=      5-min Rain = 0
KCA1 111011Z 13004KT 14/10 A3018 RMK A01 T01400097  RH  075%=      5-min Rain = 0
KCA1 111012Z 14005KT 14/10 A3018 RMK A01 T01400097  RH  075%=      5-min Rain = 0
KCA1 111013Z 13004KT 14/10 A3018 RMK A01 T01400097  RH  076%=      5-min Rain = 0
KCA1 111014Z 14004KT 14/10 A3018 RMK A01 T01390097  RH  076%=      5-min Rain = 0
KCA1 111015Z 13005KT 14/10 A3018 RMK A01 T01390097  RH  076%=      5-min Rain = 0
KCA1 111016Z 14005KT 14/10 A3018 RMK A01 T01400097  RH  075%=      5-min Rain = 0
KCA1 111017Z 14005KT 14/10 A3018 RMK A01 T01410097  RH  075%=      5-min Rain = 0
KCA1 111018Z 14005KT 14/10 A3018 RMK A01 T01420098  RH  074%=      5-min Rain = 0
KCA1 111019Z 14005KT 14/10 A3018 RMK A01 T01430097  RH  074%=      5-min Rain = 0
KCA1 111020Z 14004KT 14/10 A3017 RMK A01 T01430098  RH  074%=      5-min Rain = 0
KCA1 111021Z 14004KT 14/10 A3017 RMK A01 T01440098  RH  074%=      5-min Rain = 0
KCA1 111022Z 14004KT 14/10 A3017 RMK A01 T01440098  RH  074%=      5-min Rain = 0
KCA1 111023Z 14004KT 15/10 A3017 RMK A01 T01450097  RH  073%=      5-min Rain = 0
KCA1 111024Z 14004KT 15/10 A3017 RMK A01 T01450097  RH  073%=      5-min Rain = 0
KCA1 111025Z 14004KT 15/10 A3017 RMK A01 T01450098  RH  073%=      5-min Rain = 0
KCA1 111026Z 14004KT 15/10 A3017 RMK A01 T01450097  RH  073%=      5-min Rain = 0
KCA1 111027Z 13004KT 14/10 A3017 RMK A01 T01430097  RH  074%=      5-min Rain = 0
KCA1 111028Z 13004KT 14/10 A3017 RMK A01 T01410097  RH  074%=      5-min Rain = 0
KCA1 111029Z 14004KT 14/10 A3017 RMK A01 T01400097  RH  075%=      5-min Rain = 0
KCA1 111030Z 14004KT 14/10 A3017 RMK A01 T01390096  RH  076%=      5-min Rain = 0
KCA1 111031Z 14004KT 14/10 A3018 RMK A01 T01370096  RH  076%=      5-min Rain = 0
KCA1 111032Z 14004KT 14/10 A3018 RMK A01 T01370096  RH  076%=      5-min Rain = 0
KCA1 111033Z 15004KT 14/10 A3018 RMK A01 T01370096  RH  076%=      5-min Rain = 0
KCA1 111034Z 14004KT 14/10 A3018 RMK A01 T01370096  RH  076%=      5-min Rain = 0
KCA1 111035Z 15004KT 14/10 A3018 RMK A01 T01370096  RH  076%=      5-min Rain = 0
KCA1 111036Z 15003KT 14/10 A3018 RMK A01 T01360096  RH  077%=      5-min Rain = 0
KCA1 111037Z 15003KT 14/10 A3018 RMK A01 T01350096  RH  077%=      5-min Rain = 0
KCA1 111038Z 15003KT 14/10 A3018 RMK A01 T01360096  RH  077%=      5-min Rain = 0
KCA1 111039Z 16003KT 14/10 A3018 RMK A01 T01370095  RH  076%=      5-min Rain = 0
KCA1 111040Z 16003KT 14/10 A3018 RMK A01 T01370095  RH  076%=      5-min Rain = 0
KCA1 111041Z 15003KT 14/10 A3018 RMK A01 T01380096  RH  075%=      5-min Rain = 0
KCA1 111042Z 16003KT 14/10 A3018 RMK A01 T01390095  RH  075%=      5-min Rain = 0
KCA1 111043Z 15003KT 14/10 A3018 RMK A01 T01400096  RH  075%=      5-min Rain = 0
KCA1 111044Z 15002KT 14/10 A3018 RMK A01 T01400096  RH  074%=      5-min Rain = 0
KCA1 111045Z 14002KT 14/10 A3018 RMK A01 T01410095  RH  074%=      5-min Rain = 0
KCA1 111046Z 14002KT 14/10 A3018 RMK A01 T01410095  RH  074%=      5-min Rain = 0
KCA1 111047Z 13002KT 14/10 A3018 RMK A01 T01410095  RH  074%=      5-min Rain = 0
KCA1 111048Z 13002KT 14/10 A3018 RMK A01 T01410096  RH  074%=      5-min Rain = 0
KCA1 111049Z 14002KT 14/10 A3018 RMK A01 T01410095  RH  074%=      5-min Rain = 0
KCA1 111050Z 14002KT 14/10 A3018 RMK A01 T01410095  RH  074%=      5-min Rain = 0
KCA1 111051Z 13003KT 14/10 A3018 RMK A01 T01400095  RH  074%=      5-min Rain = 0
KCA1 111052Z 14003KT 14/10 A3018 RMK A01 T01400095  RH  074%=      5-min Rain = 0
KCA1 111053Z 14003KT 14/10 A3018 RMK A01 T01390095  RH  075%=      5-min Rain = 0
KCA1 111054Z 14003KT 14/10 A3018 RMK A01 T01400095  RH  074%=      5-min Rain = 0
KCA1 111055Z 14002KT 14/10 A3018 RMK A01 T01410095  RH  074%=      5-min Rain = 0
KCA1 111056Z 14002KT 14/10 A3018 RMK A01 T01420095  RH  074%=      5-min Rain = 0
KCA1 111057Z 16003KT 14/10 A3018 RMK A01 T01420096  RH  073%=      5-min Rain = 0
KCA1 111058Z 15002KT 14/10 A3018 RMK A01 T01430095  RH  073%=      5-min Rain = 0
KCA1 111059Z 14002KT 14/10 A3018 RMK A01 T01430095  RH  073%=      5-min Rain = 0
KCA1 111100Z 14002KT 14/10 A3018 RMK A01 T01440095  RH  073%=      5-min Rain = 0
KCA1 111101Z 13002KT 14/10 A3018 RMK A01 T01440095  RH  072%=      5-min Rain = 0
KCA1 111102Z 15002KT 15/10 A3018 RMK A01 T01450095  RH  072%=      5-min Rain = 0
KCA1 111103Z 16003KT 15/10 A3018 RMK A01 T01450095  RH  072%=      5-min Rain = 0
KCA1 111104Z 15003KT 15/10 A3018 RMK A01 T01460095  RH  072%=      5-min Rain = 0
KCA1 111105Z 13002KT 15/10 A3018 RMK A01 T01460096  RH  072%=      5-min Rain = 0
KCA1 111106Z 14002KT 15/10 A3018 RMK A01 T01450095  RH  072%=      5-min Rain = 0
KCA1 111107Z 15002KT 14/10 A3018 RMK A01 T01440095  RH  073%=      5-min Rain = 0
KCA1 111108Z 15002KT 14/10 A3018 RMK A01 T01430095  RH  073%=      5-min Rain = 0
KCA1 111109Z 16002KT 14/10 A3018 RMK A01 T01430095  RH  073%=      5-min Rain = 0
KCA1 111110Z 15003KT 14/10 A3018 RMK A01 T01430095  RH  073%=      5-min Rain = 0
KCA1 111111Z 16002KT 15/10 A3018 RMK A01 T01450095  RH  072%=      5-min Rain = 0
KCA1 111112Z 16002KT 15/10 A3018 RMK A01 T01460096  RH  072%=      5-min Rain = 0
KCA1 111113Z 16003KT 15/10 A3018 RMK A01 T01460095  RH  071%=      5-min Rain = 0
KCA1 111114Z 15003KT 15/10 A3018 RMK A01 T01460095  RH  071%=      5-min Rain = 0
KCA1 111115Z 15003KT 15/10 A3018 RMK A01 T01470095  RH  071%=      5-min Rain = 0
KCA1 111116Z 15003KT 15/10 A3018 RMK A01 T01470095  RH  071%=      5-min Rain = 0
KCA1 111117Z 16003KT 15/10 A3018 RMK A01 T01450095  RH  072%=      5-min Rain = 0
KCA1 111118Z 16003KT 15/10 A3018 RMK A01 T01450095  RH  072%=      5-min Rain = 0
KCA1 111119Z 16003KT 14/10 A3018 RMK A01 T01440095  RH  072%=      5-min Rain = 0
KCA1 111120Z 15004KT 14/10 A3018 RMK A01 T01440095  RH  072%=      5-min Rain = 0
KCA1 111121Z 15004KT 15/10 A3018 RMK A01 T01450095  RH  072%=      5-min Rain = 0
KCA1 111122Z 15004KT 15/10 A3018 RMK A01 T01450095  RH  072%=      5-min Rain = 0
KCA1 111123Z 15003KT 14/10 A3018 RMK A01 T01440095  RH  072%=      5-min Rain = 0
KCA1 111124Z 15004KT 14/10 A3018 RMK A01 T01440095  RH  072%=      5-min Rain = 0
KCA1 111125Z 15003KT 14/10 A3018 RMK A01 T01430095  RH  072%=      5-min Rain = 0
KCA1 111126Z 15004KT 14/09 A3018 RMK A01 T01430094  RH  073%=      5-min Rain = 0
KCA1 111127Z 14003KT 14/10 A3018 RMK A01 T01430095  RH  073%=      5-min Rain = 0
KCA1 111128Z 14004KT 14/09 A3018 RMK A01 T01430094  RH  073%=      5-min Rain = 0
KCA1 111129Z 14003KT 14/09 A3018 RMK A01 T01430094  RH  073%=      5-min Rain = 0
KCA1 111130Z 14004KT 14/09 A3018 RMK A01 T01430094  RH  073%=      5-min Rain = 0
KCA1 111131Z 14003KT 14/09 A3018 RMK A01 T01430094  RH  073%=      5-min Rain = 0
KCA1 111132Z 14003KT 14/09 A3018 RMK A01 T01410094  RH  073%=      5-min Rain = 0
KCA1 111133Z 14004KT 14/09 A3018 RMK A01 T01390094  RH  074%=      5-min Rain = 0
KCA1 111134Z 14004KT 14/09 A3018 RMK A01 T01380094  RH  074%=      5-min Rain = 0
KCA1 111135Z 14004KT 14/09 A3018 RMK A01 T01370093  RH  075%=      5-min Rain = 0
KCA1 111136Z 14004KT 14/09 A3018 RMK A01 T01360094  RH  075%=      5-min Rain = 0
KCA1 111137Z 13004KT 14/09 A3018 RMK A01 T01360094  RH  075%=      5-min Rain = 0
KCA1 111138Z 12004KT 14/09 A3019 RMK A01 T01360094  RH  076%=      5-min Rain = 0
KCA1 111139Z 12004KT 14/09 A3019 RMK A01 T01350093  RH  076%=      5-min Rain = 0
KCA1 111140Z 12004KT 13/09 A3019 RMK A01 T01340093  RH  076%=      5-min Rain = 0
KCA1 111141Z 12005KT 13/09 A3019 RMK A01 T01330094  RH  077%=      5-min Rain = 0
KCA1 111142Z 12005KT 13/09 A3019 RMK A01 T01330094  RH  077%=      5-min Rain = 0
KCA1 111143Z 12005KT 13/09 A3019 RMK A01 T01330094  RH  077%=      5-min Rain = 0
KCA1 111144Z 12005KT 13/09 A3019 RMK A01 T01320094  RH  078%=      5-min Rain = 0
KCA1 111145Z 12005KT 13/09 A3019 RMK A01 T01320094  RH  078%=      5-min Rain = 0
KCA1 111146Z 11005KT 13/09 A3019 RMK A01 T01310094  RH  078%=      5-min Rain = 0
KCA1 111147Z 11005KT 13/09 A3019 RMK A01 T01300094  RH  078%=      5-min Rain = 0
KCA1 111148Z 12004KT 13/09 A3019 RMK A01 T01300094  RH  079%=      5-min Rain = 0
KCA1 111149Z 12005KT 13/09 A3019 RMK A01 T01300094  RH  079%=      5-min Rain = 0
KCA1 111150Z 12005KT 13/09 A3019 RMK A01 T01300094  RH  079%=      5-min Rain = 0
KCA1 111151Z 12005KT 13/09 A3019 RMK A01 T01310094  RH  078%=      5-min Rain = 0
KCA1 111152Z 12005KT 13/09 A3019 RMK A01 T01310094  RH  078%=      5-min Rain = 0
KCA1 111153Z 12005KT 13/09 A3019 RMK A01 T01310094  RH  078%=      5-min Rain = 0
KCA1 111154Z 12005KT 13/10 A3019 RMK A01 T01320095  RH  078%=      5-min Rain = 0
KCA1 111155Z 12005KT 13/10 A3019 RMK A01 T01330095  RH  078%=      5-min Rain = 0
KCA1 111156Z 12005KT 13/09 A3019 RMK A01 T01320094  RH  078%=      5-min Rain = 0
KCA1 111157Z 12005KT 13/10 A3019 RMK A01 T01330095  RH  078%=      5-min Rain = 0
KCA1 111158Z 13005KT 13/10 A3019 RMK A01 T01330095  RH  078%=      5-min Rain = 0
KCA1 111159Z 13005KT 13/10 A3019 RMK A01 T01330095  RH  078%=      5-min Rain = 0
KCA1 111200Z 13005KT 13/09 A3019 RMK A01 T01320094  RH  078%=      5-min Rain = 0
KCA1 111201Z 13005KT 13/09 A3019 RMK A01 T01320094  RH  078%=      5-min Rain = 0
KCA1 111202Z 13005KT 13/09 A3019 RMK A01 T01330094  RH  077%=      5-min Rain = 0
KCA1 111203Z 14005KT 13/09 A3019 RMK A01 T01340094  RH  077%=      5-min Rain = 0
KCA1 111204Z 14004KT 13/09 A3019 RMK A01 T01340094  RH  077%=      5-min Rain = 0
KCA1 111205Z 14005KT 13/09 A3019 RMK A01 T01340094  RH  077%=      5-min Rain = 0
KCA1 111206Z 14005KT 14/09 A3019 RMK A01 T01350094  RH  077%=      5-min Rain = 0
KCA1 111207Z 14004KT 13/09 A3019 RMK A01 T01340094  RH  077%=      5-min Rain = 0
KCA1 111208Z 14004KT 13/09 A3019 RMK A01 T01340094  RH  077%=      5-min Rain = 0
KCA1 111209Z 13004KT 14/09 A3019 RMK A01 T01350094  RH  076%=      5-min Rain = 0
KCA1 111210Z 13004KT 14/09 A3019 RMK A01 T01350094  RH  076%=      5-min Rain = 0
KCA1 111211Z 13004KT 14/09 A3019 RMK A01 T01350094  RH  076%=      5-min Rain = 0
KCA1 111212Z 13004KT 14/09 A3019 RMK A01 T01350094  RH  076%=      5-min Rain = 0
KCA1 111213Z 13003KT 14/09 A3019 RMK A01 T01350094  RH  076%=      5-min Rain = 0
KCA1 111214Z 13003KT 14/09 A3019 RMK A01 T01350094  RH  076%=      5-min Rain = 0
KCA1 111215Z 12003KT 14/09 A3019 RMK A01 T01350094  RH  076%=      5-min Rain = 0
KCA1 111216Z 12003KT 14/09 A3019 RMK A01 T01350094  RH  076%=      5-min Rain = 0
KCA1 111217Z 12003KT 13/09 A3019 RMK A01 T01340094  RH  077%=      5-min Rain = 0
KCA1 111218Z 12003KT 13/09 A3019 RMK A01 T01340094  RH  077%=      5-min Rain = 0
KCA1 111219Z 12003KT 13/09 A3019 RMK A01 T01330094  RH  077%=      5-min Rain = 0
KCA1 111220Z 12003KT 13/09 A3019 RMK A01 T01320094  RH  077%=      5-min Rain = 0
KCA1 111221Z 13003KT 13/09 A3019 RMK A01 T01320094  RH  078%=      5-min Rain = 0
KCA1 111222Z 12003KT 13/09 A3019 RMK A01 T01320094  RH  078%=      5-min Rain = 0
KCA1 111223Z 13003KT 13/09 A3019 RMK A01 T01330094  RH  077%=      5-min Rain = 0
KCA1 111224Z 12003KT 13/09 A3019 RMK A01 T01330094  RH  077%=      5-min Rain = 0
KCA1 111225Z 13004KT 13/09 A3019 RMK A01 T01340094  RH  077%=      5-min Rain = 0
KCA1 111226Z 12004KT 13/09 A3019 RMK A01 T01340094  RH  077%=      5-min Rain = 0
KCA1 111227Z 13004KT 13/09 A3019 RMK A01 T01340094  RH  077%=      5-min Rain = 0
KCA1 111228Z 13003KT 13/09 A3019 RMK A01 T01340094  RH  077%=      5-min Rain = 0
KCA1 111229Z 13003KT 13/09 A3019 RMK A01 T01340094  RH  077%=      5-min Rain = 0
KCA1 111230Z 13003KT 13/09 A3019 RMK A01 T01340094  RH  077%=      5-min Rain = 0
KCA1 111231Z 13003KT 14/09 A3019 RMK A01 T01350094  RH  077%=      5-min Rain = 0
KCA1 111232Z 13003KT 14/10 A3019 RMK A01 T01350095  RH  076%=      5-min Rain = 0
KCA1 111233Z 13003KT 14/10 A3019 RMK A01 T01360095  RH  076%=      5-min Rain = 0
KCA1 111234Z 13003KT 14/10 A3019 RMK A01 T01370095  RH  076%=      5-min Rain = 0
KCA1 111235Z 13003KT 14/10 A3019 RMK A01 T01370095  RH  075%=      5-min Rain = 0
KCA1 111236Z 12003KT 14/10 A3019 RMK A01 T01380095  RH  075%=      5-min Rain = 0
KCA1 111237Z 12004KT 14/10 A3019 RMK A01 T01380095  RH  075%=      5-min Rain = 0
KCA1 111238Z 12004KT 14/10 A3019 RMK A01 T01380095  RH  075%=      5-min Rain = 0
KCA1 111239Z 12004KT 14/10 A3019 RMK A01 T01380095  RH  075%=      5-min Rain = 0
KCA1 111240Z 12004KT 14/10 A3019 RMK A01 T01370095  RH  076%=      5-min Rain = 0
KCA1 111241Z 12004KT 14/10 A3019 RMK A01 T01370095  RH  076%=      5-min Rain = 0
KCA1 111242Z 11004KT 14/10 A3019 RMK A01 T01370095  RH  076%=      5-min Rain = 0
KCA1 111243Z 11004KT 14/10 A3019 RMK A01 T01360095  RH  076%=      5-min Rain = 0
KCA1 111244Z 11004KT 14/10 A3019 RMK A01 T01350095  RH  077%=      5-min Rain = 0
KCA1 111245Z 10005KT 13/10 A3019 RMK A01 T01340095  RH  077%=      5-min Rain = 0
KCA1 111246Z 10005KT 13/10 A3019 RMK A01 T01340096  RH  078%=      5-min Rain = 0
KCA1 111247Z 10006KT 13/10 A3019 RMK A01 T01340096  RH  078%=      5-min Rain = 0
KCA1 111248Z 10006KT 13/10 A3019 RMK A01 T01330096  RH  078%=      5-min Rain = 0
KCA1 111249Z 10006KT 13/10 A3019 RMK A01 T01340097  RH  078%=      5-min Rain = 0
KCA1 111250Z 10006KT 13/10 A3019 RMK A01 T01340097  RH  078%=      5-min Rain = 0
KCA1 111251Z 10006KT 14/10 A3019 RMK A01 T01350097  RH  078%=      5-min Rain = 0
KCA1 111252Z 10006KT 14/10 A3019 RMK A01 T01350097  RH  078%=      5-min Rain = 0
KCA1 111253Z 10006KT 14/10 A3019 RMK A01 T01350097  RH  078%=      5-min Rain = 0
KCA1 111254Z 11006KT 14/10 A3019 RMK A01 T01350097  RH  078%=      5-min Rain = 0
KCA1 111255Z 11005KT 14/10 A3019 RMK A01 T01360098  RH  078%=      5-min Rain = 0
KCA1 111256Z 11005KT 14/10 A3019 RMK A01 T01360097  RH  077%=      5-min Rain = 0
KCA1 111257Z 11005KT 14/10 A3019 RMK A01 T01360098  RH  077%=      5-min Rain = 0
KCA1 111258Z 11005KT 14/10 A3019 RMK A01 T01360098  RH  077%=      5-min Rain = 0
KCA1 111259Z 11004KT 14/10 A3019 RMK A01 T01370098  RH  077%=      5-min Rain = 0
KCA1 111300Z 11004KT 14/10 A3019 RMK A01 T01380098  RH  077%=      5-min Rain = 0
KCA1 111301Z 11004KT 14/10 A3019 RMK A01 T01390098  RH  076%=      5-min Rain = 0
KCA1 111302Z 12004KT 14/10 A3019 RMK A01 T01400099  RH  076%=      5-min Rain = 0
KCA1 111303Z 12004KT 14/10 A3019 RMK A01 T01410099  RH  076%=      5-min Rain = 0
KCA1 111304Z 12004KT 14/10 A3019 RMK A01 T01420099  RH  076%=      5-min Rain = 0
KCA1 111305Z 12004KT 14/10 A3019 RMK A01 T01430100  RH  075%=      5-min Rain = 0
KCA1 111306Z 12004KT 14/10 A3019 RMK A01 T01430099  RH  075%=      5-min Rain = 0
KCA1 111307Z 12004KT 15/10 A3019 RMK A01 T01450100  RH  075%=      5-min Rain = 0
KCA1 111308Z 12004KT 15/10 A3019 RMK A01 T01450101  RH  075%=      5-min Rain = 0
KCA1 111309Z 12004KT 15/10 A3019 RMK A01 T01450101  RH  075%=      5-min Rain = 0
KCA1 111310Z 11004KT 15/10 A3019 RMK A01 T01450101  RH  075%=      5-min Rain = 0
KCA1 111311Z 12004KT 15/10 A3019 RMK A01 T01460102  RH  075%=      5-min Rain = 0
KCA1 111312Z 12004KT 15/10 A3019 RMK A01 T01470102  RH  075%=      5-min Rain = 0
KCA1 111313Z 11004KT 15/10 A3019 RMK A01 T01480103  RH  075%=      5-min Rain = 0
KCA1 111314Z 11004KT 15/10 A3019 RMK A01 T01480102  RH  074%=      5-min Rain = 0
KCA1 111315Z 11004KT 15/10 A3019 RMK A01 T01490103  RH  074%=      5-min Rain = 0
KCA1 111316Z 12003KT 15/10 A3019 RMK A01 T01500103  RH  073%=      5-min Rain = 0
KCA1 111317Z 11003KT 15/10 A3019 RMK A01 T01510103  RH  073%=      5-min Rain = 0
KCA1 111318Z 12003KT 15/10 A3019 RMK A01 T01520103  RH  072%=      5-min Rain = 0
KCA1 111319Z 11002KT 15/10 A3019 RMK A01 T01530103  RH  072%=      5-min Rain = 0
KCA1 111320Z 12002KT 15/10 A3019 RMK A01 T01540104  RH  072%=      5-min Rain = 0
KCA1 111321Z 12002KT 16/11 A3019 RMK A01 T01560105  RH  072%=      5-min Rain = 0
KCA1 111322Z 12002KT 16/10 A3019 RMK A01 T01570104  RH  071%=      5-min Rain = 0
KCA1 111323Z 12002KT 16/10 A3019 RMK A01 T01580104  RH  071%=      5-min Rain = 0
KCA1 111324Z 12003KT 16/11 A3019 RMK A01 T01590105  RH  070%=      5-min Rain = 0
KCA1 111325Z 11003KT 16/10 A3019 RMK A01 T01600104  RH  069%=      5-min Rain = 0
KCA1 111326Z 12004KT 16/11 A3019 RMK A01 T01610105  RH  069%=      5-min Rain = 0
KCA1 111327Z 11003KT 16/10 A3019 RMK A01 T01620104  RH  068%=      5-min Rain = 0
KCA1 111328Z 11003KT 16/10 A3019 RMK A01 T01620103  RH  068%=      5-min Rain = 0
KCA1 111329Z 12003KT 16/10 A3019 RMK A01 T01630103  RH  068%=      5-min Rain = 0
KCA1 111330Z 11003KT 16/10 A3019 RMK A01 T01630104  RH  068%=      5-min Rain = 0
KCA1 111331Z 11003KT 16/11 A3019 RMK A01 T01640105  RH  068%=      5-min Rain = 0
KCA1 111332Z 12003KT 17/11 A3018 RMK A01 T01650105  RH  067%=      5-min Rain = 0
KCA1 111333Z 12003KT 17/11 A3018 RMK A01 T01660105  RH  067%=      5-min Rain = 0
KCA1 111334Z 12003KT 17/11 A3018 RMK A01 T01670105  RH  067%=      5-min Rain = 0
KCA1 111335Z 12003KT 17/11 A3018 RMK A01 T01680105  RH  066%=      5-min Rain = 0
KCA1 111336Z 12004KT 17/11 A3018 RMK A01 T01690105  RH  066%=      5-min Rain = 0
KCA1 111337Z 12004KT 17/10 A3018 RMK A01 T01690103  RH  065%=      5-min Rain = 0
KCA1 111338Z 13004KT 17/10 A3018 RMK A01 T01690103  RH  065%=      5-min Rain = 0
KCA1 111339Z 12003KT 17/10 A3018 RMK A01 T01700103  RH  065%=      5-min Rain = 0
KCA1 111340Z 12003KT 17/10 A3018 RMK A01 T01700104  RH  065%=      5-min Rain = 0
KCA1 111341Z 13004KT 17/10 A3018 RMK A01 T01710104  RH  065%=      5-min Rain = 0
KCA1 111342Z 13003KT 17/10 A3018 RMK A01 T01710104  RH  065%=      5-min Rain = 0
KCA1 111343Z 13003KT 17/11 A3018 RMK A01 T01720105  RH  065%=      5-min Rain = 0
KCA1 111344Z 12003KT 17/10 A3018 RMK A01 T01730104  RH  064%=      5-min Rain = 0
KCA1 111345Z 12004KT 17/10 A3018 RMK A01 T01730102  RH  063%=      5-min Rain = 0
KCA1 111346Z 13004KT 17/10 A3018 RMK A01 T01740103  RH  063%=      5-min Rain = 0
KCA1 111347Z 12003KT 17/10 A3018 RMK A01 T01740103  RH  063%=      5-min Rain = 0
KCA1 111348Z 12003KT 18/10 A3018 RMK A01 T01750103  RH  062%=      5-min Rain = 0
KCA1 111349Z 13003KT 18/10 A3018 RMK A01 T01760104  RH  062%=      5-min Rain = 0
KCA1 111350Z 15003KT 18/11 A3018 RMK A01 T01780105  RH  063%=      5-min Rain = 0
KCA1 111351Z 13003KT 18/11 A3018 RMK A01 T01790105  RH  062%=      5-min Rain = 0
KCA1 111352Z 14003KT 18/10 A3018 RMK A01 T01800104  RH  061%=      5-min Rain = 0
KCA1 111353Z 14003KT 18/10 A3018 RMK A01 T01810104  RH  061%=      5-min Rain = 0
KCA1 111354Z 14003KT 18/10 A3018 RMK A01 T01820104  RH  060%=      5-min Rain = 0
KCA1 111355Z 13002KT 18/11 A3019 RMK A01 T01830105  RH  061%=      5-min Rain = 0
KCA1 111356Z 13003KT 18/10 A3019 RMK A01 T01830103  RH  060%=      5-min Rain = 0
KCA1 111357Z 13003KT 18/11 A3019 RMK A01 T01830105  RH  060%=      5-min Rain = 0
KCA1 111358Z 12003KT 18/10 A3019 RMK A01 T01840104  RH  059%=      5-min Rain = 0
KCA1 111359Z 13003KT 18/11 A3019 RMK A01 T01840105  RH  060%=      5-min Rain = 0
KCA1 111400Z 14003KT 18/10 A3019 RMK A01 T01840104  RH  060%=      5-min Rain = 0
KCA1 111401Z 14003KT 18/10 A3019 RMK A01 T01840104  RH  060%=      5-min Rain = 0
KCA1 111402Z 12002KT 18/10 A3019 RMK A01 T01840104  RH  060%=      5-min Rain = 0
KCA1 111403Z 15003KT 18/10 A3019 RMK A01 T01840104  RH  059%=      5-min Rain = 0
KCA1 111404Z 14003KT 19/10 A3019 RMK A01 T01850104  RH  059%=      5-min Rain = 0
KCA1 111405Z 15002KT 19/10 A3019 RMK A01 T01850104  RH  059%=      5-min Rain = 0
KCA1 111406Z 14002KT 19/11 A3019 RMK A01 T01860105  RH  059%=      5-min Rain = 0
KCA1 111407Z 12002KT 19/11 A3019 RMK A01 T01860105  RH  059%=      5-min Rain = 0
KCA1 111408Z 13003KT 19/10 A3019 RMK A01 T01870104  RH  059%=      5-min Rain = 0
KCA1 111409Z 14002KT 19/10 A3019 RMK A01 T01880104  RH  058%=      5-min Rain = 0
KCA1 111410Z 15003KT 19/11 A3019 RMK A01 T01880105  RH  059%=      5-min Rain = 0
KCA1 111411Z 16002KT 19/10 A3019 RMK A01 T01880103  RH  058%=      5-min Rain = 0
KCA1 111412Z 16003KT 19/10 A3019 RMK A01 T01880104  RH  058%=      5-min Rain = 0
KCA1 111413Z 13002KT 19/11 A3019 RMK A01 T01890105  RH  058%=      5-min Rain = 0
KCA1 111414Z 14003KT 19/11 A3019 RMK A01 T01890105  RH  058%=      5-min Rain = 0
KCA1 111415Z 15002KT 19/11 A3019 RMK A01 T01900106  RH  058%=      5-min Rain = 0
KCA1 111416Z 18002KT 19/11 A3019 RMK A01 T01910105  RH  058%=      5-min Rain = 0
KCA1 111417Z 15001KT 19/11 A3019 RMK A01 T01920105  RH  057%=      5-min Rain = 0
KCA1 111418Z 15002KT 19/11 A3019 RMK A01 T01920107  RH  058%=      5-min Rain = 0
KCA1 111419Z 14002KT 19/11 A3019 RMK A01 T01930105  RH  057%=      5-min Rain = 0
KCA1 111420Z 15002KT 19/11 A3019 RMK A01 T01930105  RH  056%=      5-min Rain = 0
KCA1 111421Z 17002KT 19/11 A3019 RMK A01 T01940105  RH  056%=      5-min Rain = 0
KCA1 111422Z 15003KT 19/10 A3019 RMK A01 T01940104  RH  056%=      5-min Rain = 0
KCA1 111423Z 14002KT 20/11 A3019 RMK A01 T01950106  RH  057%=      5-min Rain = 0
KCA1 111424Z 15003KT 20/11 A3019 RMK A01 T01960106  RH  056%=      5-min Rain = 0
KCA1 111425Z 17002KT 20/11 A3019 RMK A01 T01960106  RH  056%=      5-min Rain = 0
KCA1 111426Z 14001KT 20/11 A3019 RMK A01 T01960107  RH  056%=      5-min Rain = 0
KCA1 111427Z 15002KT 20/11 A3019 RMK A01 T01970106  RH  056%=      5-min Rain = 0
KCA1 111428Z 13002KT 20/11 A3019 RMK A01 T01980108  RH  056%=      5-min Rain = 0
KCA1 111429Z 13003KT 20/11 A3019 RMK A01 T01980107  RH  056%=      5-min Rain = 0
KCA1 111430Z 17003KT 20/11 A3019 RMK A01 T01990109  RH  056%=      5-min Rain = 0
KCA1 111431Z 14002KT 20/11 A3019 RMK A01 T02000110  RH  056%=      5-min Rain = 0
KCA1 111432Z 15002KT 20/11 A3019 RMK A01 T02010109  RH  055%=      5-min Rain = 0
KCA1 111433Z 14002KT 20/11 A3019 RMK A01 T02020109  RH  055%=      5-min Rain = 0
KCA1 111434Z 16002KT 20/11 A3019 RMK A01 T02030109  RH  055%=      5-min Rain = 0
KCA1 111435Z 14002KT 20/11 A3019 RMK A01 T02030110  RH  055%=      5-min Rain = 0
KCA1 111436Z 16002KT 20/11 A3019 RMK A01 T02040110  RH  055%=      5-min Rain = 0
KCA1 111437Z 19003KT 20/11 A3019 RMK A01 T02040110  RH  055%=      5-min Rain = 0
KCA1 111438Z 18002KT 20/11 A3019 RMK A01 T02040111  RH  055%=      5-min Rain = 0
KCA1 111439Z 16003KT 20/11 A3019 RMK A01 T02040111  RH  055%=      5-min Rain = 0
KCA1 111440Z 13003KT 20/11 A3019 RMK A01 T02040110  RH  055%=      5-min Rain = 0
KCA1 111441Z 13002KT 21/11 A3019 RMK A01 T02050109  RH  054%=      5-min Rain = 0
KCA1 111442Z 15003KT 21/11 A3019 RMK A01 T02050109  RH  054%=      5-min Rain = 0
KCA1 111443Z 15002KT 21/11 A3019 RMK A01 T02050110  RH  054%=      5-min Rain = 0
KCA1 111444Z 15003KT 21/11 A3019 RMK A01 T02060112  RH  055%=      5-min Rain = 0
KCA1 111445Z 15003KT 21/11 A3019 RMK A01 T02070111  RH  054%=      5-min Rain = 0
KCA1 111446Z 17002KT 21/11 A3019 RMK A01 T02080112  RH  054%=      5-min Rain = 0
KCA1 111447Z 15002KT 21/11 A3019 RMK A01 T02090112  RH  054%=      5-min Rain = 0
KCA1 111448Z 15003KT 21/11 A3019 RMK A01 T02100112  RH  053%=      5-min Rain = 0
KCA1 111449Z 15002KT 21/11 A3019 RMK A01 T02110112  RH  053%=      5-min Rain = 0
KCA1 111450Z 22001KT 21/11 A3019 RMK A01 T02120113  RH  053%=      5-min Rain = 0
KCA1 111451Z 20001KT 21/11 A3019 RMK A01 T02120112  RH  053%=      5-min Rain = 0
KCA1 111452Z 17003KT 21/11 A3019 RMK A01 T02130113  RH  053%=      5-min Rain = 0
KCA1 111453Z 18002KT 21/11 A3019 RMK A01 T02130114  RH  053%=      5-min Rain = 0
KCA1 111454Z 14001KT 21/11 A3019 RMK A01 T02140113  RH  053%=      5-min Rain = 0
KCA1 111455Z 13003KT 22/12 A3019 RMK A01 T02150116  RH  053%=      5-min Rain = 0
KCA1 111456Z 16003KT 22/12 A3019 RMK A01 T02160115  RH  052%=      5-min Rain = 0
KCA1 111457Z 16003KT 22/11 A3019 RMK A01 T02180114  RH  052%=      5-min Rain = 0
KCA1 111458Z 16003KT 22/11 A3019 RMK A01 T02180114  RH  051%=      5-min Rain = 0
KCA1 111459Z 17002KT 22/12 A3019 RMK A01 T02180116  RH  052%=      5-min Rain = 0
KCA1 111500Z 14003KT 22/12 A3019 RMK A01 T02200117  RH  052%=      5-min Rain = 0
KCA1 111501Z 13004KT 22/12 A3019 RMK A01 T02210116  RH  051%=      5-min Rain = 0
KCA1 111502Z 12003KT 22/12 A3019 RMK A01 T02220116  RH  051%=      5-min Rain = 0
KCA1 111503Z 14004KT 22/12 A3019 RMK A01 T02220115  RH  051%=      5-min Rain = 0
KCA1 111504Z 16004KT 22/12 A3019 RMK A01 T02220115  RH  051%=      5-min Rain = 0
KCA1 111505Z 14004KT 22/12 A3019 RMK A01 T02220116  RH  051%=      5-min Rain = 0
KCA1 111506Z 14003KT 22/12 A3019 RMK A01 T02220116  RH  051%=      5-min Rain = 0
KCA1 111507Z 14003KT 22/12 A3019 RMK A01 T02230118  RH  051%=      5-min Rain = 0
KCA1 111508Z 14002KT 23/12 A3019 RMK A01 T02250118  RH  051%=      5-min Rain = 0
KCA1 111509Z 13002KT 23/12 A3019 RMK A01 T02270117  RH  050%=      5-min Rain = 0
KCA1 111510Z 14006KT 23/12 A3019 RMK A01 T02280116  RH  049%=      5-min Rain = 0
KCA1 111511Z 13004KT 23/12 A3019 RMK A01 T02300115  RH  048%=      5-min Rain = 0
KCA1 111512Z 16004KT 23/11 A3019 RMK A01 T02310114  RH  048%=      5-min Rain = 0
KCA1 111513Z 19002KT 23/11 A3019 RMK A01 T02320112  RH  047%=      5-min Rain = 0
KCA1 111514Z 17003KT 23/11 A3019 RMK A01 T02320114  RH  047%=      5-min Rain = 0
KCA1 111515Z 19003KT 23/12 A3019 RMK A01 T02320116  RH  048%=      5-min Rain = 0
KCA1 111516Z 19005KT 23/12 A3019 RMK A01 T02330116  RH  048%=      5-min Rain = 0
KCA1 111517Z 17001KT 23/11 A3019 RMK A01 T02330112  RH  047%=      5-min Rain = 0
KCA1 111518Z 21003KT 23/11 A3019 RMK A01 T02320112  RH  047%=      5-min Rain = 0
KCA1 111519Z 17004KT 23/11 A3019 RMK A01 T02320114  RH  047%=      5-min Rain = 0
KCA1 111520Z 19006KT 23/12 A3019 RMK A01 T02330116  RH  048%=      5-min Rain = 0
KCA1 111521Z 20007KT 24/11 A3019 RMK A01 T02350114  RH  047%=      5-min Rain = 0
KCA1 111522Z 21006KT 24/12 A3019 RMK A01 T02360116  RH  047%=      5-min Rain = 0
KCA1 111523Z 22005KT 24/12 A3019 RMK A01 T02360116  RH  047%=      5-min Rain = 0
KCA1 111524Z 22004KT 24/12 A3019 RMK A01 T02360115  RH  047%=      5-min Rain = 0
KCA1 111525Z 21002KT 24/12 A3019 RMK A01 T02360115  RH  046%=      5-min Rain = 0
KCA1 111526Z 22002KT 24/12 A3019 RMK A01 T02360115  RH  047%=      5-min Rain = 0
KCA1 111527Z 21003KT 24/11 A3019 RMK A01 T02370114  RH  046%=      5-min Rain = 0
KCA1 111528Z 23003KT 24/12 A3019 RMK A01 T02380115  RH  046%=      5-min Rain = 0
KCA1 111529Z 25003KT 24/12 A3019 RMK A01 T02390115  RH  046%=      5-min Rain = 0
KCA1 111530Z 21003KT 24/12 A3019 RMK A01 T02410115  RH  045%=      5-min Rain = 0
KCA1 111531Z 24002KT 24/12 A3019 RMK A01 T02430115  RH  045%=      5-min Rain = 0
KCA1 111532Z 20001KT 24/12 A3019 RMK A01 T02440118  RH  045%=      5-min Rain = 0
KCA1 111533Z 23003KT 25/12 A3019 RMK A01 T02470118  RH  044%=      5-min Rain = 0
KCA1 111534Z 22006KT 25/12 A3019 RMK A01 T02500117  RH  043%=      5-min Rain = 0
KCA1 111535Z 21006KT 25/12 A3019 RMK A01 T02500115  RH  043%=      5-min Rain = 0
KCA1 111536Z 20005KT 25/12 A3019 RMK A01 T02490116  RH  043%=      5-min Rain = 0
KCA1 111537Z 18004KT 25/12 A3019 RMK A01 T02490115  RH  043%=      5-min Rain = 0
KCA1 111538Z 18004KT 25/11 A3019 RMK A01 T02490114  RH  043%=      5-min Rain = 0
KCA1 111539Z 18002KT 25/11 A3019 RMK A01 T02490113  RH  042%=      5-min Rain = 0
KCA1 111540Z 20002KT 25/11 A3018 RMK A01 T02500112  RH  042%=      5-min Rain = 0
KCA1 111541Z 20005KT 25/12 A3018 RMK A01 T02510115  RH  042%=      5-min Rain = 0
KCA1 111542Z 20004KT 25/12 A3018 RMK A01 T02520115  RH  042%=      5-min Rain = 0
KCA1 111543Z 20007KT 25/11 A3018 RMK A01 T02520114  RH  042%=      5-min Rain = 0
KCA1 111544Z 18006KT 25/11 A3018 RMK A01 T02520111  RH  041%=      5-min Rain = 0
KCA1 111545Z 19008KT 25/11 A3018 RMK A01 T02540113  RH  041%=      5-min Rain = 0
KCA1 111546Z 19008KT 26/11 A3018 RMK A01 T02570113  RH  041%=      5-min Rain = 0
KCA1 111547Z 18007KT 26/11 A3018 RMK A01 T02580112  RH  040%=      5-min Rain = 0
KCA1 111548Z 17009KT 26/11 A3018 RMK A01 T02600114  RH  040%=      5-min Rain = 0
KCA1 111549Z 17007KT 26/11 A3018 RMK A01 T02610111  RH  039%=      5-min Rain = 0
KCA1 111550Z 17009KT 26/11 A3018 RMK A01 T02610114  RH  040%=      5-min Rain = 0
KCA1 111551Z 17010KT 26/11 A3018 RMK A01 T02620110  RH  038%=      5-min Rain = 0
KCA1 111552Z 16010KT 26/11 A3018 RMK A01 T02620112  RH  039%=      5-min Rain = 0
KCA1 111553Z 16009KT 26/11 A3018 RMK A01 T02620109  RH  038%=      5-min Rain = 0
KCA1 111554Z 19008KT 26/11 A3018 RMK A01 T02630111  RH  039%=      5-min Rain = 0
KCA1 111555Z 18010KT 26/11 A3018 RMK A01 T02630111  RH  039%=      5-min Rain = 0
KCA1 111556Z 17008KT 26/11 A3018 RMK A01 T02620110  RH  039%=      5-min Rain = 0
KCA1 111557Z 18010KT 26/11 A3018 RMK A01 T02620109  RH  039%=      5-min Rain = 0
KCA1 111558Z 18009KT 26/11 A3018 RMK A01 T02620110  RH  039%=      5-min Rain = 0
KCA1 111559Z 17010KT 26/11 A3018 RMK A01 T02630111  RH  039%=      5-min Rain = 0
KCA1 111600Z 17007KT 26/11 A3018 RMK A01 T02640108  RH  038%=      5-min Rain = 0
KCA1 111601Z 17006KT 26/11 A3018 RMK A01 T02630108  RH  038%=      5-min Rain = 0
KCA1 111602Z 18006KT 26/11 A3018 RMK A01 T02620111  RH  039%=      5-min Rain = 0
KCA1 111603Z 20010KT 26/11 A3018 RMK A01 T02630111  RH  039%=      5-min Rain = 0
KCA1 111604Z 19009KT 27/11 A3018 RMK A01 T02650108  RH  037%=      5-min Rain = 0
KCA1 111605Z 19009KT 26/11 A3018 RMK A01 T02640107  RH  037%=      5-min Rain = 0
KCA1 111606Z 20006KT 26/11 A3018 RMK A01 T02630107  RH  038%=      5-min Rain = 0
KCA1 111607Z 20009KT 26/11 A3018 RMK A01 T02630108  RH  038%=      5-min Rain = 0
KCA1 111608Z 19008KT 26/11 A3018 RMK A01 T02640110  RH  038%=      5-min Rain = 0
KCA1 111609Z 20006KT 27/11 A3018 RMK A01 T02650108  RH  038%=      5-min Rain = 0
KCA1 111610Z 17006KT 26/11 A3018 RMK A01 T02640111  RH  038%=      5-min Rain = 0
KCA1 111611Z 17007KT 27/11 A3018 RMK A01 T02650110  RH  038%=      5-min Rain = 0
KCA1 111612Z 19009KT 27/11 A3018 RMK A01 T02680112  RH  038%=      5-min Rain = 0
KCA1 111613Z 17007KT 27/11 A3018 RMK A01 T02680111  RH  037%=      5-min Rain = 0
KCA1 111614Z 16008KT 27/11 A3018 RMK A01 T02690110  RH  037%=      5-min Rain = 0
KCA1 111615Z 18009KT 27/11 A3018 RMK A01 T02710111  RH  037%=      5-min Rain = 0
KCA1 111616Z 20006KT 27/11 A3018 RMK A01 T02700106  RH  036%=      5-min Rain = 0
KCA1 111617Z 21006KT 27/11 A3018 RMK A01 T02670106  RH  036%=      5-min Rain = 0
KCA1 111618Z 21005KT 27/11 A3018 RMK A01 T02660109  RH  037%=      5-min Rain = 0
KCA1 111619Z 19009KT 27/11 A3018 RMK A01 T02670110  RH  038%=      5-min Rain = 0
KCA1 111620Z 18008KT 27/11 A3018 RMK A01 T02690112  RH  037%=      5-min Rain = 0
KCA1 111621Z 17007KT 27/11 A3018 RMK A01 T02710109  RH  036%=      5-min Rain = 0
KCA1 111622Z 17009KT 27/11 A3018 RMK A01 T02710110  RH  036%=      5-min Rain = 0
KCA1 111623Z 17010KT 27/11 A3018 RMK A01 T02710109  RH  036%=      5-min Rain = 0
KCA1 111624Z 18007KT 27/11 A3018 RMK A01 T02710110  RH  037%=      5-min Rain = 0
KCA1 111625Z 21005KT 27/11 A3018 RMK A01 T02720110  RH  036%=      5-min Rain = 0
KCA1 111626Z 19008KT 27/11 A3018 RMK A01 T02720110  RH  036%=      5-min Rain = 0
KCA1 111627Z 20007KT 27/11 A3017 RMK A01 T02700107  RH  036%=      5-min Rain = 0
KCA1 111628Z 19007KT 27/11 A3017 RMK A01 T02690110  RH  037%=      5-min Rain = 0
KCA1 111629Z 19005KT 27/11 A3017 RMK A01 T02700108  RH  036%=      5-min Rain = 0
KCA1 111630Z 19006KT 27/11 A3017 RMK A01 T02700113  RH  037%=      5-min Rain = 0
KCA1 111631Z 18006KT 27/11 A3017 RMK A01 T02730111  RH  036%=      5-min Rain = 0
KCA1 111632Z 17009KT 27/11 A3017 RMK A01 T02730111  RH  036%=      5-min Rain = 0
KCA1 111633Z 15008KT 27/11 A3017 RMK A01 T02730109  RH  036%=      5-min Rain = 0
KCA1 111634Z 15007KT 27/11 A3017 RMK A01 T02710108  RH  036%=      5-min Rain = 0
KCA1 111635Z 17007KT 27/11 A3017 RMK A01 T02710112  RH  037%=      5-min Rain = 0
KCA1 111636Z 16007KT 27/11 A3017 RMK A01 T02740112  RH  037%=      5-min Rain = 0
KCA1 111637Z 17008KT 28/11 A3017 RMK A01 T02780114  RH  036%=      5-min Rain = 0
KCA1 111638Z 18008KT 28/11 A3017 RMK A01 T02790112  RH  035%=      5-min Rain = 0
KCA1 111639Z 19005KT 28/11 A3017 RMK A01 T02780110  RH  035%=      5-min Rain = 0
KCA1 111640Z 18005KT 28/11 A3017 RMK A01 T02760113  RH  036%=      5-min Rain = 0
KCA1 111641Z 16007KT 28/11 A3017 RMK A01 T02780113  RH  036%=      5-min Rain = 0
KCA1 111642Z 17007KT 28/11 A3017 RMK A01 T02790111  RH  035%=      5-min Rain = 0
KCA1 111643Z 16008KT 28/11 A3017 RMK A01 T02800111  RH  035%=      5-min Rain = 0
KCA1 111644Z 16008KT 28/11 A3017 RMK A01 T02800112  RH  035%=      5-min Rain = 0
KCA1 111645Z 16005KT 28/11 A3017 RMK A01 T02800110  RH  035%=      5-min Rain = 0
KCA1 111646Z 15003KT 28/11 A3017 RMK A01 T02790111  RH  035%=      5-min Rain = 0
KCA1 111647Z 21007KT 28/11 A3017 RMK A01 T02800114  RH  036%=      5-min Rain = 0
KCA1 111648Z 20007KT 28/11 A3017 RMK A01 T02810113  RH  035%=      5-min Rain = 0
KCA1 111649Z 19007KT 28/12 A3017 RMK A01 T02830116  RH  035%=      5-min Rain = 0
KCA1 111650Z 18011KT 29/11 A3017 RMK A01 T02850114  RH  035%=      5-min Rain = 0
KCA1 111651Z 19007KT 29/11 A3017 RMK A01 T02850112  RH  034%=      5-min Rain = 0
KCA1 111652Z 18008KT 28/11 A3017 RMK A01 T02830111  RH  034%=      5-min Rain = 0
KCA1 111653Z 18009KT 28/11 A3017 RMK A01 T02800112  RH  035%=      5-min Rain = 0
KCA1 111654Z 17009KT 28/11 A3017 RMK A01 T02820113  RH  035%=      5-min Rain = 0
KCA1 111655Z 18006KT 28/11 A3017 RMK A01 T02840111  RH  034%=      5-min Rain = 0
KCA1 111656Z 17009KT 28/11 A3017 RMK A01 T02830114  RH  035%=      5-min Rain = 0
KCA1 111657Z 18010KT 28/11 A3017 RMK A01 T02830113  RH  035%=      5-min Rain = 0
KCA1 111658Z 18007KT 28/11 A3017 RMK A01 T02820111  RH  034%=      5-min Rain = 0
KCA1 111659Z 17006KT 28/11 A3017 RMK A01 T02820114  RH  035%=      5-min Rain = 0
KCA1 111700Z 20006KT 28/11 A3017 RMK A01 T02840113  RH  035%=      5-min Rain = 0
KCA1 111701Z 18004KT 28/11 A3017 RMK A01 T02830111  RH  034%=      5-min Rain = 0
KCA1 111702Z 17006KT 28/11 A3017 RMK A01 T02820111  RH  035%=      5-min Rain = 0
KCA1 111703Z 13004KT 28/11 A3017 RMK A01 T02800112  RH  035%=      5-min Rain = 0
KCA1 111704Z 15005KT 28/11 A3017 RMK A01 T02810111  RH  035%=      5-min Rain = 0
KCA1 111705Z 20005KT 28/11 A3017 RMK A01 T02820113  RH  035%=      5-min Rain = 0
KCA1 111706Z 20008KT 28/11 A3017 RMK A01 T02840112  RH  034%=      5-min Rain = 0
KCA1 111707Z 21008KT 29/11 A3017 RMK A01 T02850112  RH  034%=      5-min Rain = 0
KCA1 111708Z 18007KT 28/11 A3017 RMK A01 T02830111  RH  034%=      5-min Rain = 0
KCA1 111709Z 21007KT 28/11 A3016 RMK A01 T02830112  RH  035%=      5-min Rain = 0
KCA1 111710Z 17006KT 29/11 A3016 RMK A01 T02850114  RH  035%=      5-min Rain = 0
KCA1 111711Z 15006KT 29/11 A3016 RMK A01 T02860112  RH  034%=      5-min Rain = 0
KCA1 111712Z 17005KT 28/11 A3016 RMK A01 T02840111  RH  034%=      5-min Rain = 0
KCA1 111713Z 14005KT 28/11 A3016 RMK A01 T02830112  RH  034%=      5-min Rain = 0
KCA1 111714Z 13006KT 28/12 A3016 RMK A01 T02830115  RH  035%=      5-min Rain = 0
KCA1 111715Z 18010KT 29/12 A3016 RMK A01 T02870118  RH  035%=      5-min Rain = 0
KCA1 111716Z 19010KT 29/12 A3016 RMK A01 T02910115  RH  034%=      5-min Rain = 0
KCA1 111717Z 18009KT 29/11 A3016 RMK A01 T02920114  RH  033%=      5-min Rain = 0
KCA1 111718Z 17008KT 29/11 A3016 RMK A01 T02900113  RH  033%=      5-min Rain = 0
KCA1 111719Z 18007KT 29/11 A3016 RMK A01 T02900114  RH  034%=      5-min Rain = 0
KCA1 111720Z 21007KT 29/11 A3016 RMK A01 T02900112  RH  033%=      5-min Rain = 0
KCA1 111721Z 20004KT 29/11 A3016 RMK A01 T02890112  RH  033%=      5-min Rain = 0
KCA1 111722Z 19005KT 29/11 A3016 RMK A01 T02870112  RH  034%=      5-min Rain = 0
KCA1 111723Z 17006KT 29/11 A3016 RMK A01 T02870113  RH  034%=      5-min Rain = 0
KCA1 111724Z 15008KT 29/11 A3016 RMK A01 T02880114  RH  034%=      5-min Rain = 0
KCA1 111725Z 16007KT 29/11 A3016 RMK A01 T02910114  RH  034%=      5-min Rain = 0
KCA1 111726Z 17009KT 29/11 A3016 RMK A01 T02920114  RH  033%=      5-min Rain = 0
KCA1 111727Z 17011KT 29/12 A3016 RMK A01 T02940116  RH  033%=      5-min Rain = 0
KCA1 111728Z 16008KT 29/11 A3016 RMK A01 T02940113  RH  033%=      5-min Rain = 0
KCA1 111729Z 16005KT 29/11 A3016 RMK A01 T02930113  RH  033%=      5-min Rain = 0
KCA1 111730Z 16007KT 29/11 A3016 RMK A01 T02910113  RH  033%=      5-min Rain = 0
KCA1 111731Z 16010KT 29/12 A3016 RMK A01 T02920116  RH  034%=      5-min Rain = 0
KCA1 111732Z 17008KT 30/11 A3016 RMK A01 T02950114  RH  033%=      5-min Rain = 0
KCA1 111733Z 18008KT 30/11 A3016 RMK A01 T02950114  RH  033%=      5-min Rain = 0
KCA1 111734Z 15005KT 29/11 A3016 RMK A01 T02940114  RH  033%=      5-min Rain = 0
KCA1 111735Z 13006KT 29/11 A3016 RMK A01 T02930113  RH  033%=      5-min Rain = 0
KCA1 111736Z 15008KT 29/12 A3015 RMK A01 T02920115  RH  034%=      5-min Rain = 0
KCA1 111737Z 16011KT 29/12 A3015 RMK A01 T02940117  RH  033%=      5-min Rain = 0
KCA1 111738Z 17011KT 30/12 A3015 RMK A01 T02970115  RH  032%=      5-min Rain = 0
KCA1 111739Z 17008KT 30/11 A3015 RMK A01 T02960112  RH  032%=      5-min Rain = 0
KCA1 111740Z 16008KT 29/12 A3015 RMK A01 T02930115  RH  033%=      5-min Rain = 0
KCA1 111741Z 16007KT 29/11 A3015 RMK A01 T02940113  RH  033%=      5-min Rain = 0
KCA1 111742Z 15006KT 29/11 A3015 RMK A01 T02940113  RH  033%=      5-min Rain = 0
KCA1 111743Z 17004KT 29/12 A3015 RMK A01 T02940115  RH  033%=      5-min Rain = 0
KCA1 111744Z 14006KT 30/11 A3015 RMK A01 T02950114  RH  033%=      5-min Rain = 0
KCA1 111745Z 15006KT 30/11 A3015 RMK A01 T02960113  RH  032%=      5-min Rain = 0
KCA1 111746Z 13006KT 30/11 A3015 RMK A01 T02950113  RH  033%=      5-min Rain = 0
KCA1 111747Z 13005KT 29/11 A3015 RMK A01 T02930112  RH  033%=      5-min Rain = 0
KCA1 111748Z 15004G9KT 29/12 A3015 RMK A01 T02920116  RH  034%=      5-min Rain = 0
KCA1 111749Z 17007KT 30/12 A3015 RMK A01 T02960117  RH  033%=      5-min Rain = 0
KCA1 111750Z 17007KT 30/12 A3015 RMK A01 T03010119  RH  033%=      5-min Rain = 0
KCA1 111751Z 18008KT 30/12 A3015 RMK A01 T03030116  RH  032%=      5-min Rain = 0
KCA1 111752Z 17010KT 30/12 A3015 RMK A01 T03030117  RH  032%=      5-min Rain = 0
KCA1 111753Z 18006KT 30/12 A3015 RMK A01 T03030115  RH  031%=      5-min Rain = 0
KCA1 111754Z 20003KT 30/11 A3015 RMK A01 T03000112  RH  031%=      5-min Rain = 0
KCA1 111755Z 21004KT 30/11 A3015 RMK A01 T02950111  RH  032%=      5-min Rain = 0
KCA1 111756Z 21004KT 29/11 A3015 RMK A01 T02930112  RH  033%=      5-min Rain = 0
KCA1 111757Z 20005KT 29/11 A3015 RMK A01 T02920112  RH  033%=      5-min Rain = 0
KCA1 111758Z 20008KT 29/11 A3015 RMK A01 T02920114  RH  033%=      5-min Rain = 0
KCA1 111759Z 17008G13KT 29/12 A3015 RMK A01 T02920116  RH  034%=      5-min Rain = 0
KCA1 111800Z 17009KT 30/12 A3015 RMK A01 T02970117  RH  033%=      5-min Rain = 0
KCA1 111801Z 15010KT 30/12 A3015 RMK A01 T03000117  RH  032%=      5-min Rain = 0
KCA1 111802Z 16011KT 30/12 A3014 RMK A01 T03020118  RH  032%=      5-min Rain = 0
KCA1 111803Z 17010KT 30/12 A3014 RMK A01 T03030116  RH  032%=      5-min Rain = 0
KCA1 111804Z 16008KT 30/11 A3015 RMK A01 T03010114  RH  032%=      5-min Rain = 0
KCA1 111805Z 16007KT 30/12 A3015 RMK A01 T02990116  RH  032%=      5-min Rain = 0
KCA1 111806Z 15006KT 30/11 A3015 RMK A01 T02970113  RH  032%=      5-min Rain = 0
KCA1 111807Z 17005KT 30/11 A3015 RMK A01 T02950114  RH  033%=      5-min Rain = 0
KCA1 111808Z 18006KT 29/12 A3014 RMK A01 T02940115  RH  033%=      5-min Rain = 0
KCA1 111809Z 18006KT 30/12 A3014 RMK A01 T02960115  RH  033%=      5-min Rain = 0
KCA1 111810Z 14006KT 30/12 A3014 RMK A01 T02980116  RH  032%=      5-min Rain = 0
KCA1 111811Z 18009KT 30/12 A3014 RMK A01 T03000116  RH  032%=      5-min Rain = 0
KCA1 111812Z 17008G14KT 30/12 A3014 RMK A01 T03000116  RH  032%=      5-min Rain = 0
KCA1 111813Z 17006KT 30/12 A3014 RMK A01 T03020116  RH  032%=      5-min Rain = 0
KCA1 111814Z 18008KT 30/12 A3014 RMK A01 T03030120  RH  033%=      5-min Rain = 0
KCA1 111815Z 19006KT 31/12 A3014 RMK A01 T03060116  RH  031%=      5-min Rain = 0
KCA1 111816Z 20007KT 30/11 A3014 RMK A01 T03020114  RH  031%=      5-min Rain = 0
KCA1 111817Z 20006KT 30/11 A3014 RMK A01 T02980114  RH  032%=      5-min Rain = 0
KCA1 111818Z 16005KT 30/12 A3014 RMK A01 T02970116  RH  033%=      5-min Rain = 0
KCA1 111819Z 15005KT 30/12 A3014 RMK A01 T02970115  RH  032%=      5-min Rain = 0
KCA1 111820Z 13003KT 30/11 A3014 RMK A01 T02980114  RH  032%=      5-min Rain = 0
KCA1 111821Z 13006KT 30/12 A3014 RMK A01 T02990116  RH  033%=      5-min Rain = 0
KCA1 111822Z 14005KT 30/12 A3014 RMK A01 T03000116  RH  032%=      5-min Rain = 0
KCA1 111823Z 10004KT 30/11 A3014 RMK A01 T03020114  RH  031%=      5-min Rain = 0
KCA1 111824Z 13007KT 30/11 A3014 RMK A01 T03000114  RH  032%=      5-min Rain = 0
KCA1 111825Z 14004KT 30/11 A3014 RMK A01 T02990114  RH  032%=      5-min Rain = 0
KCA1 111826Z 17002KT 30/11 A3014 RMK A01 T02970112  RH  032%=      5-min Rain = 0
KCA1 111827Z 19003KT 30/12 A3014 RMK A01 T02970115  RH  033%=      5-min Rain = 0
KCA1 111828Z 14004KT 30/12 A3014 RMK A01 T03000116  RH  032%=      5-min Rain = 0
KCA1 111829Z 12007KT 30/11 A3014 RMK A01 T03010114  RH  032%=      5-min Rain = 0
KCA1 111830Z 12005KT 30/12 A3014 RMK A01 T03030116  RH  032%=      5-min Rain = 0
KCA1 111831Z 15006KT 30/12 A3014 RMK A01 T03040115  RH  031%=      5-min Rain = 0
KCA1 111832Z 15005KT 30/11 A3014 RMK A01 T03040113  RH  031%=      5-min Rain = 0
KCA1 111833Z 13003KT 30/11 A3014 RMK A01 T03030112  RH  031%=      5-min Rain = 0
KCA1 111834Z 15002KT 30/11 A3014 RMK A01 T02990111  RH  031%=      5-min Rain = 0
KCA1 111835Z 14004KT 30/11 A3014 RMK A01 T02970111  RH  032%=      5-min Rain = 0
KCA1 111836Z 16008KT 30/11 A3013 RMK A01 T02960114  RH  032%=      5-min Rain = 0
KCA1 111837Z 16008KT 30/12 A3014 RMK A01 T03000118  RH  032%=      5-min Rain = 0
KCA1 111838Z 16006KT 31/12 A3014 RMK A01 T03050116  RH  031%=      5-min Rain = 0
KCA1 111839Z 17003KT 30/11 A3014 RMK A01 T03040114  RH  031%=      5-min Rain = 0
KCA1 111840Z 18005KT 30/12 A3013 RMK A01 T03040119  RH  032%=      5-min Rain = 0
KCA1 111841Z 19005KT 31/12 A3013 RMK A01 T03070116  RH  031%=      5-min Rain = 0
KCA1 111842Z 23002KT 31/11 A3013 RMK A01 T03050114  RH  031%=      5-min Rain = 0
KCA1 111843Z 16002KT 31/12 A3013 RMK A01 T03050117  RH  032%=      5-min Rain = 0
KCA1 111844Z 20004KT 31/12 A3013 RMK A01 T03070117  RH  031%=      5-min Rain = 0
KCA1 111845Z 19003KT 31/12 A3013 RMK A01 T03090116  RH  030%=      5-min Rain = 0
KCA1 111846Z 14006G11KT 31/12 A3013 RMK A01 T03100117  RH  031%=      5-min Rain = 0
KCA1 111847Z 13007KT 31/12 A3013 RMK A01 T03110118  RH  031%=      5-min Rain = 0
KCA1 111848Z 15005KT 31/12 A3013 RMK A01 T03090116  RH  031%=      5-min Rain = 0
KCA1 111849Z 18008KT 31/12 A3013 RMK A01 T03080117  RH  031%=      5-min Rain = 0
KCA1 111850Z 16007KT 31/12 A3013 RMK A01 T03080116  RH  031%=      5-min Rain = 0
KCA1 111851Z 18005KT 31/12 A3013 RMK A01 T03090116  RH  031%=      5-min Rain = 0
KCA1 111852Z 19006KT 31/12 A3013 RMK A01 T03090116  RH  031%=      5-min Rain = 0
KCA1 111853Z 22004KT 31/12 A3013 RMK A01 T03080115  RH  031%=      5-min Rain = 0
KCA1 111854Z 20003KT 31/12 A3013 RMK A01 T03060116  RH  031%=      5-min Rain = 0
KCA1 111855Z 17002KT 31/12 A3013 RMK A01 T03060116  RH  031%=      5-min Rain = 0
KCA1 111856Z 14006KT 31/12 A3013 RMK A01 T03070115  RH  031%=      5-min Rain = 0
KCA1 111857Z 13004KT 31/12 A3013 RMK A01 T03070115  RH  031%=      5-min Rain = 0
KCA1 111858Z 19002KT 31/11 A3013 RMK A01 T03050113  RH  031%=      5-min Rain = 0
KCA1 111859Z 31001KT 30/11 A3012 RMK A01 T03040114  RH  031%=      5-min Rain = 0
KCA1 111900Z 15006KT 30/12 A3012 RMK A01 T03040116  RH  031%=      5-min Rain = 0
KCA1 111901Z 14008KT 31/12 A3012 RMK A01 T03070116  RH  031%=      5-min Rain = 0
KCA1 111902Z 13005KT 31/12 A3012 RMK A01 T03080116  RH  031%=      5-min Rain = 0
KCA1 111903Z 11007KT 31/12 A3012 RMK A01 T03080116  RH  031%=      5-min Rain = 0
KCA1 111904Z 15008KT 31/12 A3012 RMK A01 T03070119  RH  031%=      5-min Rain = 0
KCA1 111905Z 18008KT 31/12 A3012 RMK A01 T03110120  RH  031%=      5-min Rain = 0
KCA1 111906Z 16010KT 32/12 A3012 RMK A01 T03150120  RH  030%=      5-min Rain = 0
KCA1 111907Z 15008KT 32/12 A3012 RMK A01 T03160119  RH  030%=      5-min Rain = 0
KCA1 111908Z 16007KT 32/12 A3012 RMK A01 T03160120  RH  030%=      5-min Rain = 0
KCA1 111909Z 16007KT 32/12 A3012 RMK A01 T03150119  RH  030%=      5-min Rain = 0
KCA1 111910Z 16007KT 32/12 A3012 RMK A01 T03150118  RH  030%=      5-min Rain = 0
KCA1 111911Z 15006KT 32/12 A3012 RMK A01 T03150118  RH  030%=      5-min Rain = 0
KCA1 111912Z 13004KT 31/12 A3012 RMK A01 T03140117  RH  030%=      5-min Rain = 0
KCA1 111913Z 13004KT 31/12 A3012 RMK A01 T03120117  RH  030%=      5-min Rain = 0
KCA1 111914Z 17005KT 31/12 A3012 RMK A01 T03110119  RH  031%=      5-min Rain = 0
KCA1 111915Z 14007KT 32/12 A3012 RMK A01 T03160122  RH  031%=      5-min Rain = 0
KCA1 111916Z 13007KT 32/12 A3012 RMK A01 T03190119  RH  029%=      5-min Rain = 0
KCA1 111917Z 15009KT 32/12 A3012 RMK A01 T03180118  RH  029%=      5-min Rain = 0
KCA1 111918Z 16009KT 32/12 A3012 RMK A01 T03150118  RH  030%=      5-min Rain = 0
KCA1 111919Z 15008KT 32/12 A3012 RMK A01 T03150117  RH  030%=      5-min Rain = 0
KCA1 111920Z 13007KT 31/12 A3012 RMK A01 T03140115  RH  030%=      5-min Rain = 0
KCA1 111921Z 14005KT 31/11 A3011 RMK A01 T03080113  RH  030%=      5-min Rain = 0
KCA1 111922Z 16006KT 31/12 A3011 RMK A01 T03050116  RH  031%=      5-min Rain = 0
KCA1 111923Z 16003KT 31/12 A3011 RMK A01 T03070115  RH  031%=      5-min Rain = 0
KCA1 111924Z 14003KT 31/12 A3011 RMK A01 T03080115  RH  031%=      5-min Rain = 0
KCA1 111925Z 16004KT 31/12 A3011 RMK A01 T03080115  RH  031%=      5-min Rain = 0
KCA1 111926Z 14007KT 31/12 A3011 RMK A01 T03080117  RH  031%=      5-min Rain = 0
KCA1 111927Z 14007KT 31/12 A3011 RMK A01 T03110117  RH  031%=      5-min Rain = 0
KCA1 111928Z 14006KT 31/12 A3011 RMK A01 T03120118  RH  030%=      5-min Rain = 0
KCA1 111929Z 14006KT 31/12 A3011 RMK A01 T03130117  RH  030%=      5-min Rain = 0
KCA1 111930Z 18007KT 31/12 A3011 RMK A01 T03130119  RH  030%=      5-min Rain = 0
KCA1 111931Z 20004KT 32/12 A3011 RMK A01 T03150119  RH  030%=      5-min Rain = 0
KCA1 111932Z 26003KT 32/12 A3011 RMK A01 T03160116  RH  029%=      5-min Rain = 0
KCA1 111933Z 25002KT 32/12 A3011 RMK A01 T03160116  RH  029%=      5-min Rain = 0
KCA1 111934Z 22002KT 32/12 A3011 RMK A01 T03150118  RH  030%=      5-min Rain = 0
KCA1 111935Z 16003KT 32/12 A3011 RMK A01 T03160118  RH  030%=      5-min Rain = 0
KCA1 111936Z 18008KT 32/12 A3011 RMK A01 T03170119  RH  030%=      5-min Rain = 0
KCA1 111937Z 19010KT 32/12 A3011 RMK A01 T03180121  RH  030%=      5-min Rain = 0
KCA1 111938Z 17008KT 32/12 A3011 RMK A01 T03200121  RH  030%=      5-min Rain = 0
KCA1 111939Z 18008KT 32/12 A3011 RMK A01 T03190119  RH  029%=      5-min Rain = 0
KCA1 111940Z 19007KT 32/12 A301 RMK A01 T03170119  RH  030%=      5-min Rain = 0
KCA1 111941Z 18006KT 32/12 A301 RMK A01 T03150118  RH  030%=      5-min Rain = 0
KCA1 111942Z 16005KT 31/12 A301 RMK A01 T03140119  RH  030%=      5-min Rain = 0
KCA1 111943Z 18005KT 31/12 A301 RMK A01 T03140118  RH  030%=      5-min Rain = 0
KCA1 111944Z 19005KT 32/12 A301 RMK A01 T03160121  RH  030%=      5-min Rain = 0
KCA1 111945Z 17006KT 32/12 A301 RMK A01 T03190120  RH  030%=      5-min Rain = 0
KCA1 111946Z 16008KT 32/12 A301 RMK A01 T03190119  RH  029%=      5-min Rain = 0
KCA1 111947Z 16006KT 32/12 A301 RMK A01 T03170117  RH  030%=      5-min Rain = 0
KCA1 111948Z 12005KT 32/12 A301 RMK A01 T03150120  RH  030%=      5-min Rain = 0
KCA1 111949Z 12002KT 32/12 A301 RMK A01 T03160118  RH  030%=      5-min Rain = 0
KCA1 111950Z 19004KT 32/12 A301 RMK A01 T03150117  RH  030%=      5-min Rain = 0
KCA1 111951Z 18001KT 31/12 A301 RMK A01 T03140117  RH  030%=      5-min Rain = 0
KCA1 111952Z 08006KT 31/12 A301 RMK A01 T03130117  RH  030%=      5-min Rain = 0
KCA1 111953Z 09008KT 31/12 A301 RMK A01 T03120118  RH  030%=      5-min Rain = 0
KCA1 111954Z 12007KT 31/12 A301 RMK A01 T03120118  RH  030%=      5-min Rain = 0
KCA1 111955Z 11004KT 31/12 A301 RMK A01 T03130118  RH  030%=      5-min Rain = 0
KCA1 111956Z 06004KT 31/12 A301 RMK A01 T03140117  RH  030%=      5-min Rain = 0
KCA1 111957Z 08003KT 31/12 A301 RMK A01 T03130119  RH  031%=      5-min Rain = 0
KCA1 111958Z 07007KT 31/12 A301 RMK A01 T03140119  RH  030%=      5-min Rain = 0
KCA1 111959Z 12005KT 31/12 A301 RMK A01 T03130118  RH  030%=      5-min Rain = 0
KCA1 112000Z 10005KT 31/12 A301 RMK A01 T03140120  RH  031%=      5-min Rain = 0
KCA1 112001Z 07004KT 32/12 A301 RMK A01 T03160117  RH  030%=      5-min Rain = 0
KCA1 112002Z 07003KT 32/12 A301 RMK A01 T03150118  RH  030%=      5-min Rain = 0
KCA1 112003Z 13001KT 31/12 A301 RMK A01 T03140117  RH  030%=      5-min Rain = 0
KCA1 112004Z 19005KT 31/12 A301 RMK A01 T03140118  RH  030%=      5-min Rain = 0
KCA1 112005Z 17005KT 32/12 A301 RMK A01 T03160118  RH  030%=      5-min Rain = 0
KCA1 112006Z 13007KT 32/12 A301 RMK A01 T03180119  RH  030%=      5-min Rain = 0
KCA1 112007Z 14006KT 32/12 A301 RMK A01 T03190118  RH  029%=      5-min Rain = 0
KCA1 112008Z 14004KT 32/12 A301 RMK A01 T03180119  RH  030%=      5-min Rain = 0
KCA1 112009Z 10005KT 32/12 A3009 RMK A01 T03180117  RH  029%=      5-min Rain = 0
KCA1 112010Z 09003KT 31/12 A3009 RMK A01 T03140117  RH  030%=      5-min Rain = 0
KCA1 112011Z 18006KT 31/12 A3009 RMK A01 T03130118  RH  030%=      5-min Rain = 0
KCA1 112012Z 17007KT 32/12 A3009 RMK A01 T03150118  RH  030%=      5-min Rain = 0
KCA1 112013Z 15010KT 32/12 A3009 RMK A01 T03190121  RH  030%=      5-min Rain = 0
KCA1 112014Z 15007KT 32/12 A3009 RMK A01 T03220119  RH  029%=      5-min Rain = 0
KCA1 112015Z 16005KT 32/12 A3009 RMK A01 T03210117  RH  029%=      5-min Rain = 0
KCA1 112016Z 15004KT 32/12 A3009 RMK A01 T03190117  RH  029%=      5-min Rain = 0
KCA1 112017Z 15002KT 32/12 A3009 RMK A01 T03170117  RH  029%=      5-min Rain = 0
KCA1 112018Z 27001KT 32/12 A3009 RMK A01 T03160116  RH  029%=      5-min Rain = 0
KCA1 112019Z 30002KT 31/12 A3009 RMK A01 T03140116  RH  030%=      5-min Rain = 0
KCA1 112020Z 32002KT 31/11 A3009 RMK A01 T03120114  RH  030%=      5-min Rain = 0
KCA1 112021Z 15003KT 31/12 A3009 RMK A01 T03120119  RH  031%=      5-min Rain = 0
KCA1 112022Z 16007KT 32/12 A3009 RMK A01 T03150121  RH  030%=      5-min Rain = 0
KCA1 112023Z 17009KT 32/12 A3009 RMK A01 T03190120  RH  029%=      5-min Rain = 0
KCA1 112024Z 15006KT 32/12 A3009 RMK A01 T03200119  RH  029%=      5-min Rain = 0
KCA1 112025Z 14005KT 32/12 A3009 RMK A01 T03200120  RH  029%=      5-min Rain = 0
KCA1 112026Z 16002KT 32/12 A3009 RMK A01 T03210118  RH  029%=      5-min Rain = 0
KCA1 112027Z 15003KT 32/12 A3008 RMK A01 T03210117  RH  029%=      5-min Rain = 0
KCA1 112028Z 14003G9KT 32/12 A3008 RMK A01 T03200118  RH  029%=      5-min Rain = 0
KCA1 112029Z 16006KT 32/12 A3008 RMK A01 T03190118  RH  029%=      5-min Rain = 0
KCA1 112030Z 17003KT 32/12 A3008 RMK A01 T03200117  RH  029%=      5-min Rain = 0
KCA1 112031Z 27002KT 32/12 A3008 RMK A01 T03190115  RH  029%=      5-min Rain = 0
KCA1 112032Z 19003KT 32/12 A3008 RMK A01 T03170116  RH  029%=      5-min Rain = 0
KCA1 112033Z 17005KT 32/12 A3008 RMK A01 T03180119  RH  030%=      5-min Rain = 0
KCA1 112034Z 18004KT 32/12 A3008 RMK A01 T03210119  RH  029%=      5-min Rain = 0
KCA1 112035Z 19006KT 32/12 A3008 RMK A01 T03220117  RH  029%=      5-min Rain = 0
KCA1 112036Z 15008KT 32/12 A3008 RMK A01 T03200120  RH  029%=      5-min Rain = 0
KCA1 112037Z 15006KT 32/12 A3008 RMK A01 T03230122  RH  029%=      5-min Rain = 0
KCA1 112038Z 15007KT 32/12 A3008 RMK A01 T03240122  RH  029%=      5-min Rain = 0
KCA1 112039Z 14009KT 33/12 A3008 RMK A01 T03250122  RH  029%=      5-min Rain = 0
KCA1 112040Z 16005KT 32/12 A3008 RMK A01 T03230119  RH  029%=      5-min Rain = 0
KCA1 112041Z 12002KT 32/12 A3008 RMK A01 T03200119  RH  029%=      5-min Rain = 0
KCA1 112042Z 11002KT 32/12 A3008 RMK A01 T03190118  RH  029%=      5-min Rain = 0
KCA1 112043Z 12001KT 32/12 A3008 RMK A01 T03190118  RH  029%=      5-min Rain = 0
KCA1 112044Z 09002KT 32/12 A3008 RMK A01 T03170117  RH  029%=      5-min Rain = 0
KCA1 112045Z 09001KT 32/12 A3008 RMK A01 T03150116  RH  030%=      5-min Rain = 0
KCA1 112046Z 32002KT 31/12 A3008 RMK A01 T03130116  RH  030%=      5-min Rain = 0
KCA1 112047Z 03000KT 31/12 A3008 RMK A01 T03130117  RH  030%=      5-min Rain = 0
KCA1 112048Z 13007KT 31/12 A3008 RMK A01 T03140117  RH  030%=      5-min Rain = 0
KCA1 112049Z 15004KT 32/12 A3008 RMK A01 T03150117  RH  030%=      5-min Rain = 0
KCA1 112050Z 13005KT 32/12 A3007 RMK A01 T03150119  RH  030%=      5-min Rain = 0
KCA1 112051Z 15006KT 32/12 A3007 RMK A01 T03170119  RH  030%=      5-min Rain = 0
KCA1 112052Z 12008KT 32/12 A3007 RMK A01 T03200119  RH  029%=      5-min Rain = 0
KCA1 112053Z 13006KT 32/12 A3007 RMK A01 T03200118  RH  029%=      5-min Rain = 0
KCA1 112054Z 13005KT 32/12 A3007 RMK A01 T03200118  RH  029%=      5-min Rain = 0
KCA1 112055Z 13005KT 32/12 A3007 RMK A01 T03190120  RH  030%=      5-min Rain = 0
KCA1 112056Z 13007KT 32/12 A3007 RMK A01 T03220121  RH  029%=      5-min Rain = 0
KCA1 112057Z 15006KT 32/12 A3007 RMK A01 T03240119  RH  029%=      5-min Rain = 0
KCA1 112058Z 14006KT 32/12 A3007 RMK A01 T03240120  RH  029%=      5-min Rain = 0
KCA1 112059Z 11007KT 33/12 A3007 RMK A01 T03250119  RH  028%=      5-min Rain = 0
KCA1 112100Z 10006KT 32/12 A3007 RMK A01 T03240119  RH  029%=      5-min Rain = 0
KCA1 112101Z 13006KT 32/12 A3007 RMK A01 T03220118  RH  029%=      5-min Rain = 0
KCA1 112102Z 12007KT 32/12 A3007 RMK A01 T03230119  RH  029%=      5-min Rain = 0
KCA1 112103Z 14002KT 32/12 A3007 RMK A01 T03230115  RH  028%=      5-min Rain = 0
KCA1 112104Z 07000KT 32/12 A3007 RMK A01 T03220117  RH  029%=      5-min Rain = 0
KCA1 112105Z 02001KT 32/12 A3007 RMK A01 T03210116  RH  029%=      5-min Rain = 0
KCA1 112106Z 13002KT 32/12 A3007 RMK A01 T03220116  RH  028%=      5-min Rain = 0
KCA1 112107Z 14007KT 32/12 A3007 RMK A01 T03220117  RH  029%=      5-min Rain = 0
KCA1 112108Z 16008KT 32/12 A3007 RMK A01 T03230118  RH  029%=      5-min Rain = 0
KCA1 112109Z 12007KT 32/12 A3007 RMK A01 T03220118  RH  029%=      5-min Rain = 0
KCA1 112110Z 12008KT 32/12 A3007 RMK A01 T03200116  RH  029%=      5-min Rain = 0
KCA1 112111Z 12006KT 32/12 A3007 RMK A01 T03180117  RH  029%=      5-min Rain = 0
KCA1 112112Z 14006KT 32/12 A3007 RMK A01 T03190116  RH  029%=      5-min Rain = 0
KCA1 112113Z 16005KT 32/12 A3007 RMK A01 T03200116  RH  029%=      5-min Rain = 0
KCA1 112114Z 17005KT 32/12 A3007 RMK A01 T03200116  RH  029%=      5-min Rain = 0
KCA1 112115Z 16004KT 32/12 A3007 RMK A01 T03210115  RH  028%=      5-min Rain = 0
KCA1 112116Z 13004KT 32/12 A3007 RMK A01 T03210117  RH  029%=      5-min Rain = 0
KCA1 112117Z 11006KT 32/12 A3007 RMK A01 T03210117  RH  029%=      5-min Rain = 0
KCA1 112118Z 09009KT 32/12 A3007 RMK A01 T03200117  RH  029%=      5-min Rain = 0
KCA1 112119Z 10007KT 32/12 A3007 RMK A01 T03170115  RH  029%=      5-min Rain = 0
KCA1 112120Z 11006KT 32/12 A3007 RMK A01 T03160116  RH  029%=      5-min Rain = 0
KCA1 112121Z 11004KT 32/12 A3007 RMK A01 T03160115  RH  029%=      5-min Rain = 0
KCA1 112122Z 09005KT 32/12 A3007 RMK A01 T03150115  RH  029%=      5-min Rain = 0
KCA1 112123Z 12006KT 32/12 A3007 RMK A01 T03160118  RH  030%=      5-min Rain = 0
KCA1 112124Z 10006KT 32/12 A3007 RMK A01 T03190118  RH  029%=      5-min Rain = 0
KCA1 112125Z 10007KT 32/12 A3006 RMK A01 T03190118  RH  029%=      5-min Rain = 0
KCA1 112126Z 13007KT 32/12 A3006 RMK A01 T03190119  RH  029%=      5-min Rain = 0
KCA1 112127Z 12006KT 32/12 A3007 RMK A01 T03210118  RH  029%=      5-min Rain = 0
KCA1 112128Z 13005KT 32/12 A3007 RMK A01 T03200117  RH  029%=      5-min Rain = 0
KCA1 112129Z 12002KT 32/12 A3006 RMK A01 T03180117  RH  029%=      5-min Rain = 0
KCA1 112130Z 10003KT 32/12 A3006 RMK A01 T03170116  RH  029%=      5-min Rain = 0
KCA1 112131Z 06004KT 32/11 A3006 RMK A01 T03150114  RH  029%=      5-min Rain = 0
KCA1 112132Z 05004KT 31/11 A3006 RMK A01 T03130114  RH  030%=      5-min Rain = 0
KCA1 112133Z 04003KT 31/12 A3006 RMK A01 T03120115  RH  030%=      5-min Rain = 0
KCA1 112134Z 09004KT 31/12 A3006 RMK A01 T03130116  RH  030%=      5-min Rain = 0
KCA1 112135Z 13006KT 32/12 A3006 RMK A01 T03150119  RH  030%=      5-min Rain = 0
KCA1 112136Z 12008KT 32/12 A3006 RMK A01 T03180121  RH  030%=      5-min Rain = 0
KCA1 112137Z 10005KT 32/12 A3006 RMK A01 T03180118  RH  029%=      5-min Rain = 0
KCA1 112138Z 10008KT 32/12 A3006 RMK A01 T03170118  RH  030%=      5-min Rain = 0
KCA1 112139Z 10007KT 32/12 A3006 RMK A01 T03160118  RH  030%=      5-min Rain = 0
KCA1 112140Z 09006KT 32/12 A3006 RMK A01 T03160119  RH  030%=      5-min Rain = 0
KCA1 112141Z 10007KT 32/12 A3006 RMK A01 T03170118  RH  030%=      5-min Rain = 0
KCA1 112142Z 09005KT 32/12 A3006 RMK A01 T03180118  RH  029%=      5-min Rain = 0
KCA1 112143Z 05003KT 32/12 A3006 RMK A01 T03170116  RH  029%=      5-min Rain = 0
KCA1 112144Z 05005KT 32/12 A3006 RMK A01 T03160118  RH  030%=      5-min Rain = 0
KCA1 112145Z 08003KT 32/12 A3006 RMK A01 T03170118  RH  030%=      5-min Rain = 0
KCA1 112146Z 11003KT 32/12 A3006 RMK A01 T03180119  RH  030%=      5-min Rain = 0
KCA1 112147Z 11007KT 32/12 A3006 RMK A01 T03200119  RH  029%=      5-min Rain = 0
KCA1 112148Z 12009KT 32/12 A3005 RMK A01 T03210118  RH  029%=      5-min Rain = 0
KCA1 112149Z 12007KT 32/12 A3005 RMK A01 T03200118  RH  029%=      5-min Rain = 0
KCA1 112150Z 14004KT 32/12 A3005 RMK A01 T03190116  RH  029%=      5-min Rain = 0
KCA1 112151Z 10004KT 32/12 A3005 RMK A01 T03170117  RH  029%=      5-min Rain = 0
KCA1 112152Z 10004KT 32/12 A3005 RMK A01 T03170117  RH  029%=      5-min Rain = 0
KCA1 112153Z 08003KT 32/12 A3005 RMK A01 T03170118  RH  030%=      5-min Rain = 0
KCA1 112154Z 10005KT 32/12 A3005 RMK A01 T03170119  RH  030%=      5-min Rain = 0
KCA1 112155Z 13006KT 32/12 A3005 RMK A01 T03190119  RH  030%=      5-min Rain = 0
KCA1 112156Z 16006KT 32/12 A3005 RMK A01 T03200119  RH  029%=      5-min Rain = 0
KCA1 112157Z 17005KT 32/12 A3005 RMK A01 T03220117  RH  029%=      5-min Rain = 0
KCA1 112158Z 15006KT 32/12 A3005 RMK A01 T03220117  RH  029%=      5-min Rain = 0
KCA1 112159Z 15005KT 32/12 A3005 RMK A01 T03200117  RH  029%=      5-min Rain = 0
KCA1 112200Z 13006KT 32/12 A3005 RMK A01 T03200119  RH  029%=      5-min Rain = 0
KCA1 112201Z 16005KT 32/12 A3005 RMK A01 T03210117  RH  029%=      5-min Rain = 0
KCA1 112202Z 19004KT 32/12 A3005 RMK A01 T03210115  RH  028%=      5-min Rain = 0
KCA1 112203Z 19003KT 32/12 A3005 RMK A01 T03200115  RH  029%=      5-min Rain = 0
KCA1 112204Z 17003KT 32/11 A3005 RMK A01 T03180114  RH  029%=      5-min Rain = 0
KCA1 112205Z 14003KT 32/12 A3005 RMK A01 T03170116  RH  029%=      5-min Rain = 0
KCA1 112206Z 16005KT 32/11 A3005 RMK A01 T03170114  RH  029%=      5-min Rain = 0
KCA1 112207Z 16006KT 32/12 A3005 RMK A01 T03180116  RH  029%=      5-min Rain = 0
KCA1 112208Z 16005KT 32/12 A3005 RMK A01 T03200117  RH  029%=      5-min Rain = 0
KCA1 112209Z 17003KT 32/12 A3005 RMK A01 T03210115  RH  028%=      5-min Rain = 0
KCA1 112210Z 18003KT 32/12 A3005 RMK A01 T03200115  RH  029%=      5-min Rain = 0
KCA1 112211Z 19002KT 32/11 A3005 RMK A01 T03190114  RH  029%=      5-min Rain = 0
KCA1 112212Z 17002KT 32/12 A3005 RMK A01 T03190116  RH  029%=      5-min Rain = 0
KCA1 112213Z 12004KT 32/12 A3005 RMK A01 T03190116  RH  029%=      5-min Rain = 0
KCA1 112214Z 13006KT 32/12 A3005 RMK A01 T03200116  RH  029%=      5-min Rain = 0
KCA1 112215Z 14006KT 32/12 A3005 RMK A01 T03190119  RH  030%=      5-min Rain = 0
KCA1 112216Z 15009KT 32/12 A3005 RMK A01 T03210119  RH  029%=      5-min Rain = 0
KCA1 112217Z 16007KT 32/12 A3004 RMK A01 T03210117  RH  029%=      5-min Rain = 0
KCA1 112218Z 11007KT 32/12 A3005 RMK A01 T03190119  RH  029%=      5-min Rain = 0
KCA1 112219Z 10008KT 32/12 A3005 RMK A01 T03180117  RH  029%=      5-min Rain = 0
KCA1 112220Z 10009G14KT 32/12 A3005 RMK A01 T03170117  RH  029%=      5-min Rain = 0
KCA1 112221Z 09005KT 31/12 A3005 RMK A01 T03140115  RH  029%=      5-min Rain = 0
KCA1 112222Z 10005KT 31/12 A3004 RMK A01 T03120118  RH  030%=      5-min Rain = 0
KCA1 112223Z 13008KT 31/12 A3004 RMK A01 T03140118  RH  030%=      5-min Rain = 0
KCA1 112224Z 14009KT 32/12 A3005 RMK A01 T03160119  RH  030%=      5-min Rain = 0
KCA1 112225Z 16007KT 32/12 A3004 RMK A01 T03180118  RH  029%=      5-min Rain = 0
KCA1 112226Z 16005KT 32/12 A3004 RMK A01 T03180117  RH  029%=      5-min Rain = 0
KCA1 112227Z 13004KT 32/12 A3004 RMK A01 T03180117  RH  029%=      5-min Rain = 0
KCA1 112228Z 10003KT 32/12 A3004 RMK A01 T03170116  RH  029%=      5-min Rain = 0
KCA1 112229Z 11002KT 32/12 A3004 RMK A01 T03160116  RH  029%=      5-min Rain = 0
KCA1 112230Z 13006KT 32/12 A3004 RMK A01 T03160118  RH  030%=      5-min Rain = 0
KCA1 112231Z 11005KT 32/12 A3004 RMK A01 T03170118  RH  030%=      5-min Rain = 0
KCA1 112232Z 11006KT 32/12 A3004 RMK A01 T03170116  RH  029%=      5-min Rain = 0
KCA1 112233Z 09006KT 32/12 A3004 RMK A01 T03170118  RH  030%=      5-min Rain = 0
KCA1 112234Z 08005KT 32/12 A3004 RMK A01 T03170117  RH  029%=      5-min Rain = 0
KCA1 112235Z 08006KT 32/12 A3004 RMK A01 T03160115  RH  029%=      5-min Rain = 0
KCA1 112236Z 11007KT 32/12 A3004 RMK A01 T03150118  RH  030%=      5-min Rain = 0
KCA1 112237Z 11007KT 32/12 A3004 RMK A01 T03160117  RH  030%=      5-min Rain = 0
KCA1 112238Z 12007KT 32/12 A3004 RMK A01 T03170118  RH  030%=      5-min Rain = 0
KCA1 112239Z 12007KT 32/12 A3005 RMK A01 T03170118  RH  030%=      5-min Rain = 0
KCA1 112240Z 12009KT 32/12 A3005 RMK A01 T03170118  RH  030%=      5-min Rain = 0
KCA1 112241Z 11008KT 32/12 A3005 RMK A01 T03180118  RH  029%=      5-min Rain = 0
KCA1 112242Z 11007KT 32/12 A3005 RMK A01 T03180118  RH  029%=      5-min Rain = 0
KCA1 112243Z 11007KT 32/12 A3005 RMK A01 T03180118  RH  029%=      5-min Rain = 0
KCA1 112244Z 11009KT 32/12 A3005 RMK A01 T03180118  RH  029%=      5-min Rain = 0
KCA1 112245Z 12007KT 32/12 A3005 RMK A01 T03170115  RH  029%=      5-min Rain = 0
KCA1 112246Z 10008KT 32/12 A3005 RMK A01 T03160116  RH  029%=      5-min Rain = 0
KCA1 112247Z 11008KT 32/12 A3005 RMK A01 T03150116  RH  030%=      5-min Rain = 0
KCA1 112248Z 12007KT 31/12 A3005 RMK A01 T03140116  RH  030%=      5-min Rain = 0
KCA1 112249Z 12006KT 31/12 A3005 RMK A01 T03140116  RH  030%=      5-min Rain = 0
KCA1 112250Z 12007KT 31/12 A3005 RMK A01 T03140116  RH  030%=      5-min Rain = 0
KCA1 112251Z 13008KT 31/12 A3005 RMK A01 T03140118  RH  030%=      5-min Rain = 0
KCA1 112252Z 15007KT 31/12 A3005 RMK A01 T03130118  RH  030%=      5-min Rain = 0
KCA1 112253Z 14009KT 31/12 A3005 RMK A01 T03140119  RH  030%=      5-min Rain = 0
KCA1 112254Z 13010KT 32/12 A3005 RMK A01 T03150118  RH  030%=      5-min Rain = 0
KCA1 112255Z 12006KT 32/12 A3005 RMK A01 T03150118  RH  030%=      5-min Rain = 0
KCA1 112256Z 12007KT 32/12 A3005 RMK A01 T03150119  RH  030%=      5-min Rain = 0
KCA1 112257Z 12009KT 32/12 A3005 RMK A01 T03150119  RH  030%=      5-min Rain = 0
KCA1 112258Z 13008KT 32/12 A3005 RMK A01 T03150118  RH  030%=      5-min Rain = 0
KCA1 112259Z 12008KT 32/12 A3005 RMK A01 T03150119  RH  030%=      5-min Rain = 0
KCA1 112300Z 11009KT 31/12 A3005 RMK A01 T03140118  RH  030%=      5-min Rain = 0
KCA1 112301Z 11008KT 31/12 A3005 RMK A01 T03140118  RH  030%=      5-min Rain = 0
KCA1 112302Z 10007KT 31/12 A3005 RMK A01 T03130117  RH  030%=      5-min Rain = 0
KCA1 112303Z 08005KT 31/12 A3005 RMK A01 T03130117  RH  030%=      5-min Rain = 0
KCA1 112304Z 08005KT 31/12 A3004 RMK A01 T03120115  RH  030%=      5-min Rain = 0
KCA1 112305Z 12007KT 31/12 A3004 RMK A01 T03110118  RH  031%=      5-min Rain = 0
KCA1 112306Z 13007KT 31/12 A3004 RMK A01 T03120118  RH  030%=      5-min Rain = 0
KCA1 112307Z 11006KT 31/12 A3005 RMK A01 T03120118  RH  030%=      5-min Rain = 0
KCA1 112308Z 11007KT 31/12 A3005 RMK A01 T03130117  RH  030%=      5-min Rain = 0
KCA1 112309Z 10007KT 31/12 A3005 RMK A01 T03120116  RH  030%=      5-min Rain = 0
KCA1 112310Z 10007KT 31/12 A3005 RMK A01 T03110117  RH  030%=      5-min Rain = 0
KCA1 112311Z 11008KT 31/12 A3005 RMK A01 T03120116  RH  030%=      5-min Rain = 0
KCA1 112312Z 11006KT 31/12 A3005 RMK A01 T03110115  RH  030%=      5-min Rain = 0
KCA1 112313Z 10008KT 31/12 A3005 RMK A01 T03100117  RH  030%=      5-min Rain = 0
KCA1 112314Z 09007KT 31/12 A3005 RMK A01 T03100116  RH  030%=      5-min Rain = 0
KCA1 112315Z 11008KT 31/12 A3005 RMK A01 T03100117  RH  031%=      5-min Rain = 0
KCA1 112316Z 10008KT 31/12 A3005 RMK A01 T03110116  RH  030%=      5-min Rain = 0
KCA1 112317Z 10006KT 31/12 A3005 RMK A01 T03100115  RH  030%=      5-min Rain = 0
KCA1 112318Z 10006KT 31/12 A3005 RMK A01 T03090117  RH  031%=      5-min Rain = 0
KCA1 112319Z 10006KT 31/12 A3005 RMK A01 T03090116  RH  031%=      5-min Rain = 0
KCA1 112320Z 12008KT 31/12 A3005 RMK A01 T03090117  RH  031%=      5-min Rain = 0
KCA1 112321Z 12008KT 31/12 A3005 RMK A01 T03090116  RH  030%=      5-min Rain = 0
KCA1 112322Z 12007KT 31/12 A3005 RMK A01 T03090118  RH  031%=      5-min Rain = 0
KCA1 112323Z 12008KT 31/12 A3005 RMK A01 T03090117  RH  031%=      5-min Rain = 0
KCA1 112324Z 12007KT 31/12 A3004 RMK A01 T03090118  RH  031%=      5-min Rain = 0
KCA1 112325Z 11010KT 31/12 A3004 RMK A01 T03090119  RH  031%=      5-min Rain = 0
KCA1 112326Z 11011KT 31/12 A3005 RMK A01 T03090117  RH  031%=      5-min Rain = 0
KCA1 112327Z 12010KT 31/12 A3005 RMK A01 T03080115  RH  031%=      5-min Rain = 0
KCA1 112328Z 12008KT 31/12 A3004 RMK A01 T03070115  RH  031%=      5-min Rain = 0
KCA1 112329Z 12007KT 31/12 A3004 RMK A01 T03070117  RH  031%=      5-min Rain = 0
KCA1 112330Z 12008KT 31/12 A3005 RMK A01 T03070119  RH  032%=      5-min Rain = 0
KCA1 112331Z 11009KT 31/12 A3005 RMK A01 T03070117  RH  031%=      5-min Rain = 0
KCA1 112332Z 12008KT 31/12 A3005 RMK A01 T03070116  RH  031%=      5-min Rain = 0
KCA1 112333Z 12009KT 31/12 A3004 RMK A01 T03070116  RH  031%=      5-min Rain = 0
KCA1 112334Z 11007KT 31/12 A3005 RMK A01 T03060116  RH  031%=      5-min Rain = 0
KCA1 112335Z 09007KT 31/12 A3005 RMK A01 T03060118  RH  031%=      5-min Rain = 0
KCA1 112336Z 09007KT 31/12 A3005 RMK A01 T03060117  RH  031%=      5-min Rain = 0
KCA1 112337Z 10008KT 31/12 A3005 RMK A01 T03060116  RH  031%=      5-min Rain = 0
KCA1 112338Z 10008KT 31/12 A3004 RMK A01 T03050116  RH  031%=      5-min Rain = 0
KCA1 112339Z 10006KT 31/12 A3004 RMK A01 T03050116  RH  031%=      5-min Rain = 0
KCA1 112340Z 10006KT 30/12 A3004 RMK A01 T03040117  RH  032%=      5-min Rain = 0
KCA1 112341Z 10007KT 30/12 A3004 RMK A01 T03040117  RH  032%=      5-min Rain = 0
KCA1 112342Z 11007KT 30/12 A3004 RMK A01 T03040117  RH  031%=      5-min Rain = 0
KCA1 112343Z 11007KT 30/12 A3004 RMK A01 T03040116  RH  031%=      5-min Rain = 0
KCA1 112344Z 12006KT 30/12 A3004 RMK A01 T03040117  RH  031%=      5-min Rain = 0
KCA1 112345Z 10005KT 31/12 A3004 RMK A01 T03050119  RH  032%=      5-min Rain = 0
KCA1 112346Z 10007KT 30/12 A3004 RMK A01 T03040116  RH  031%=      5-min Rain = 0
KCA1 112347Z 10007KT 30/12 A3004 RMK A01 T03040116  RH  031%=      5-min Rain = 0
KCA1 112348Z 10007KT 30/12 A3004 RMK A01 T03030116  RH  032%=      5-min Rain = 0
KCA1 112349Z 11007KT 30/12 A3005 RMK A01 T03030116  RH  032%=      5-min Rain = 0
KCA1 112350Z 10007KT 30/12 A3004 RMK A01 T03030116  RH  032%=      5-min Rain = 0
KCA1 112351Z 10007KT 30/12 A3005 RMK A01 T03030116  RH  032%=      5-min Rain = 0
KCA1 112352Z 10006KT 30/12 A3005 RMK A01 T03020116  RH  032%=      5-min Rain = 0
KCA1 112353Z 10006KT 30/12 A3005 RMK A01 T03020117  RH  032%=      5-min Rain = 0
KCA1 112354Z 10007KT 30/12 A3005 RMK A01 T03020118  RH  032%=      5-min Rain = 0
KCA1 112355Z 12007KT 30/12 A3005 RMK A01 T03010118  RH  032%=      5-min Rain = 0
KCA1 112356Z 12008KT 30/12 A3005 RMK A01 T03010116  RH  032%=      5-min Rain = 0
KCA1 112357Z 12007KT 30/12 A3005 RMK A01 T03010115  RH  032%=      5-min Rain = 0
KCA1 112358Z 11006KT 30/12 A3005 RMK A01 T03010116  RH  032%=      5-min Rain = 0
KCA1 112359Z 10007KT 30/12 A3005 RMK A01 T03000118  RH  032%=      5-min Rain = 0
KCA1 120000Z 10007KT 30/12 A3005 RMK A01 T03000117  RH  032%=      5-min Rain = 0
KCA1 120001Z 10007KT 30/12 A3005 RMK A01 T02990115  RH  032%=      5-min Rain = 0
KCA1 120002Z 10006KT 30/12 A3005 RMK A01 T02990115  RH  032%=      5-min Rain = 0
KCA1 120003Z 10008KT 30/12 A3005 RMK A01 T02990118  RH  033%=      5-min Rain = 0
KCA1 120004Z 10008KT 30/12 A3005 RMK A01 T02980118  RH  033%=      5-min Rain = 0
KCA1 120005Z 10009KT 30/12 A3005 RMK A01 T02970118  RH  033%=      5-min Rain = 0
KCA1 120006Z 11009KT 30/12 A3005 RMK A01 T02970118  RH  033%=      5-min Rain = 0
KCA1 120007Z 11007KT 30/12 A3005 RMK A01 T02960119  RH  033%=      5-min Rain = 0
KCA1 120008Z 10007KT 30/12 A3005 RMK A01 T02950120  RH  034%=      5-min Rain = 0
KCA1 120009Z 11007KT 30/12 A3005 RMK A01 T02950120  RH  034%=      5-min Rain = 0
KCA1 120010Z 11007KT 29/12 A3005 RMK A01 T02940121  RH  034%=      5-min Rain = 0
KCA1 120011Z 11007KT 29/12 A3005 RMK A01 T02940121  RH  034%=      5-min Rain = 0
KCA1 120012Z 11008KT 29/12 A3005 RMK A01 T02940121  RH  035%=      5-min Rain = 0
KCA1 120013Z 11009KT 29/12 A3005 RMK A01 T02930121  RH  035%=      5-min Rain = 0
KCA1 120014Z 11007KT 29/12 A3005 RMK A01 T02920121  RH  035%=      5-min Rain = 0
KCA1 120015Z 11008KT 29/12 A3005 RMK A01 T02920122  RH  035%=      5-min Rain = 0
KCA1 120016Z 11008KT 29/12 A3005 RMK A01 T02910122  RH  035%=      5-min Rain = 0
KCA1 120017Z 11008KT 29/12 A3005 RMK A01 T02900123  RH  036%=      5-min Rain = 0
KCA1 120018Z 11008KT 29/12 A3005 RMK A01 T02900124  RH  036%=      5-min Rain = 0
KCA1 120019Z 11009KT 29/12 A3005 RMK A01 T02890124  RH  036%=      5-min Rain = 0
KCA1 120020Z 11009KT 29/12 A3005 RMK A01 T02880123  RH  036%=      5-min Rain = 0
KCA1 120021Z 11009KT 29/12 A3005 RMK A01 T02880123  RH  036%=      5-min Rain = 0
KCA1 120022Z 11010KT 29/12 A3005 RMK A01 T02880123  RH  036%=      5-min Rain = 0
KCA1 120023Z 11008KT 29/12 A3005 RMK A01 T02870124  RH  036%=      5-min Rain = 0
KCA1 120024Z 11007KT 29/12 A3005 RMK A01 T02860124  RH  037%=      5-min Rain = 0
KCA1 120025Z 11008KT 29/13 A3005 RMK A01 T02850125  RH  037%=      5-min Rain = 0
KCA1 120026Z 11008KT 28/13 A3005 RMK A01 T02840125  RH  037%=      5-min Rain = 0
KCA1 120027Z 11009KT 28/13 A3005 RMK A01 T02830125  RH  037%=      5-min Rain = 0
KCA1 120028Z 11008KT 28/13 A3005 RMK A01 T02830125  RH  038%=      5-min Rain = 0
KCA1 120029Z 11008KT 28/13 A3005 RMK A01 T02820125  RH  038%=      5-min Rain = 0
KCA1 120030Z 11008KT 28/13 A3005 RMK A01 T02810125  RH  038%=      5-min Rain = 0
KCA1 120031Z 11009KT 28/13 A3005 RMK A01 T02810125  RH  038%=      5-min Rain = 0
KCA1 120032Z 11009KT 28/13 A3005 RMK A01 T02800125  RH  038%=      5-min Rain = 0
KCA1 120033Z 11007KT 28/12 A3005 RMK A01 T02790124  RH  038%=      5-min Rain = 0
KCA1 120034Z 11008KT 28/13 A3005 RMK A01 T02790125  RH  038%=      5-min Rain = 0
KCA1 120035Z 11008KT 28/12 A3005 RMK A01 T02780124  RH  039%=      5-min Rain = 0
KCA1 120036Z 11007KT 28/13 A3005 RMK A01 T02770125  RH  039%=      5-min Rain = 0
KCA1 120037Z 11008KT 28/12 A3005 RMK A01 T02760124  RH  039%=      5-min Rain = 0
KCA1 120038Z 11007KT 28/12 A3005 RMK A01 T02750124  RH  039%=      5-min Rain = 0
KCA1 120039Z 11007KT 27/12 A3005 RMK A01 T02740124  RH  040%=      5-min Rain = 0
KCA1 120040Z 10007KT 27/13 A3005 RMK A01 T02730125  RH  040%=      5-min Rain = 0
KCA1 120041Z 10006KT 27/13 A3005 RMK A01 T02710125  RH  040%=      5-min Rain = 0
KCA1 120042Z 09006KT 27/13 A3005 RMK A01 T02700125  RH  041%=      5-min Rain = 0
KCA1 120043Z 09006KT 27/13 A3005 RMK A01 T02680125  RH  041%=      5-min Rain = 0
KCA1 120044Z 09006KT 27/13 A3005 RMK A01 T02660125  RH  042%=      5-min Rain = 0
KCA1 120045Z 09007KT 26/13 A3005 RMK A01 T02640126  RH  042%=      5-min Rain = 0
KCA1 120046Z 09007KT 26/13 A3005 RMK A01 T02620126  RH  043%=      5-min Rain = 0
KCA1 120047Z 08006KT 26/13 A3005 RMK A01 T02600126  RH  043%=      5-min Rain = 0
KCA1 120048Z 08007KT 26/13 A3005 RMK A01 T02590126  RH  044%=      5-min Rain = 0
KCA1 120049Z 09007KT 26/13 A3005 RMK A01 T02570126  RH  044%=      5-min Rain = 0
KCA1 120050Z 08007KT 26/13 A3005 RMK A01 T02560126  RH  044%=      5-min Rain = 0
KCA1 120051Z 09008KT 25/13 A3005 RMK A01 T02540126  RH  045%=      5-min Rain = 0
KCA1 120052Z 09008KT 25/13 A3005 RMK A01 T02540126  RH  045%=      5-min Rain = 0
KCA1 120053Z 08008KT 25/13 A3005 RMK A01 T02530126  RH  045%=      5-min Rain = 0
KCA1 120054Z 09008KT 25/13 A3005 RMK A01 T02530125  RH  045%=      5-min Rain = 0
KCA1 120055Z 09008KT 25/13 A3005 RMK A01 T02520125  RH  045%=      5-min Rain = 0
KCA1 120056Z 09008KT 25/13 A3005 RMK A01 T02520125  RH  045%=      5-min Rain = 0
KCA1 120057Z 09008KT 25/13 A3005 RMK A01 T02510125  RH  045%=      5-min Rain = 0
KCA1 120058Z 09008KT 25/13 A3005 RMK A01 T02510125  RH  045%=      5-min Rain = 0
KCA1 120059Z 09008KT 25/13 A3005 RMK A01 T02510125  RH  045%=      5-min Rain = 0
KCA1 120100Z 09007KT 25/12 A3005 RMK A01 T02510124  RH  045%=      5-min Rain = 0
KCA1 120101Z 09008KT 25/13 A3005 RMK A01 T02510125  RH  045%=      5-min Rain = 0
KCA1 120102Z 09008KT 25/12 A3005 RMK A01 T02500124  RH  045%=      5-min Rain = 0
KCA1 120103Z 09008KT 25/12 A3005 RMK A01 T02500124  RH  045%=      5-min Rain = 0
KCA1 120104Z 09008KT 25/12 A3005 RMK A01 T02500124  RH  045%=      5-min Rain = 0
KCA1 120105Z 09009KT 25/12 A3005 RMK A01 T02500124  RH  045%=      5-min Rain = 0
KCA1 120106Z 09009KT 25/12 A3005 RMK A01 T02490124  RH  046%=      5-min Rain = 0
KCA1 120107Z 09009KT 25/12 A3005 RMK A01 T02480124  RH  046%=      5-min Rain = 0
KCA1 120108Z 08008KT 25/12 A3005 RMK A01 T02480123  RH  046%=      5-min Rain = 0
KCA1 120109Z 09008KT 25/12 A3005 RMK A01 T02470124  RH  046%=      5-min Rain = 0
KCA1 120110Z 08008KT 25/12 A3005 RMK A01 T02460124  RH  046%=      5-min Rain = 0
KCA1 120111Z 09008KT 25/12 A3005 RMK A01 T02450123  RH  047%=      5-min Rain = 0
KCA1 120112Z 08009KT 25/12 A3005 RMK A01 T02450123  RH  047%=      5-min Rain = 0
KCA1 120113Z 09009KT 24/12 A3005 RMK A01 T02440123  RH  047%=      5-min Rain = 0
KCA1 120114Z 09009KT 24/12 A3005 RMK A01 T02440123  RH  047%=      5-min Rain = 0
KCA1 120115Z 09009KT 24/12 A3005 RMK A01 T02440123  RH  047%=      5-min Rain = 0
KCA1 120116Z 09009KT 24/12 A3005 RMK A01 T02440124  RH  047%=      5-min Rain = 0
KCA1 120117Z 09009KT 24/12 A3006 RMK A01 T02430123  RH  047%=      5-min Rain = 0
KCA1 120118Z 09009KT 24/12 A3006 RMK A01 T02430123  RH  047%=      5-min Rain = 0
KCA1 120119Z 09009KT 24/12 A3006 RMK A01 T02420123  RH  047%=      5-min Rain = 0
KCA1 120120Z 09009KT 24/12 A3006 RMK A01 T02420123  RH  047%=      5-min Rain = 0
KCA1 120121Z 09009KT 24/12 A3006 RMK A01 T02420122  RH  047%=      5-min Rain = 0
KCA1 120122Z 09009KT 24/12 A3006 RMK A01 T02410122  RH  047%=      5-min Rain = 0
KCA1 120123Z 09009KT 24/12 A3006 RMK A01 T02410122  RH  047%=      5-min Rain = 0
KCA1 120124Z 09009KT 24/12 A3006 RMK A01 T02410122  RH  047%=      5-min Rain = 0
KCA1 120125Z 09009KT 24/12 A3006 RMK A01 T02410122  RH  047%=      5-min Rain = 0
KCA1 120126Z 09009KT 24/12 A3006 RMK A01 T02400122  RH  048%=      5-min Rain = 0
KCA1 120127Z 09010KT 24/12 A3006 RMK A01 T02400122  RH  048%=      5-min Rain = 0
KCA1 120128Z 09010KT 24/12 A3006 RMK A01 T02390122  RH  048%=      5-min Rain = 0
KCA1 120129Z 09010KT 24/12 A3006 RMK A01 T02380122  RH  048%=      5-min Rain = 0
KCA1 120130Z 09010KT 24/12 A3006 RMK A01 T02380122  RH  048%=      5-min Rain = 0
KCA1 120131Z 09010KT 24/12 A3006 RMK A01 T02380122  RH  048%=      5-min Rain = 0
KCA1 120132Z 09010KT 24/12 A3006 RMK A01 T02380122  RH  048%=      5-min Rain = 0
KCA1 120133Z 09010KT 24/12 A3006 RMK A01 T02380122  RH  048%=      5-min Rain = 0
KCA1 120134Z 09010KT 24/12 A3006 RMK A01 T02380122  RH  048%=      5-min Rain = 0
KCA1 120135Z 10009KT 24/12 A3006 RMK A01 T02380123  RH  048%=      5-min Rain = 0
KCA1 120136Z 09009KT 24/12 A3006 RMK A01 T02380123  RH  048%=      5-min Rain = 0
KCA1 120137Z 09009KT 24/12 A3006 RMK A01 T02380123  RH  049%=      5-min Rain = 0
KCA1 120138Z 09009KT 24/12 A3006 RMK A01 T02390124  RH  049%=      5-min Rain = 0
KCA1 120139Z 09009KT 24/12 A3006 RMK A01 T02390124  RH  049%=      5-min Rain = 0
KCA1 120140Z 09010KT 24/12 A3006 RMK A01 T02380123  RH  049%=      5-min Rain = 0
KCA1 120141Z 09009KT 24/12 A3006 RMK A01 T02380123  RH  049%=      5-min Rain = 0
KCA1 120142Z 09009KT 24/12 A3006 RMK A01 T02380123  RH  048%=      5-min Rain = 0
KCA1 120143Z 09009KT 24/12 A3006 RMK A01 T02370122  RH  048%=      5-min Rain = 0
KCA1 120144Z 09009KT 24/12 A3006 RMK A01 T02370122  RH  048%=      5-min Rain = 0
KCA1 120145Z 09009KT 24/12 A3006 RMK A01 T02370122  RH  048%=      5-min Rain = 0
KCA1 120146Z 09009KT 24/12 A3006 RMK A01 T02360121  RH  048%=      5-min Rain = 0
KCA1 120147Z 09009KT 24/12 A3006 RMK A01 T02360121  RH  049%=      5-min Rain = 0
KCA1 120148Z 09009KT 24/12 A3007 RMK A01 T02350121  RH  049%=      5-min Rain = 0
KCA1 120149Z 09009KT 24/12 A3007 RMK A01 T02350122  RH  049%=      5-min Rain = 0
KCA1 120150Z 08009KT 23/12 A3007 RMK A01 T02340122  RH  049%=      5-min Rain = 0
KCA1 120151Z 08009KT 23/12 A3007 RMK A01 T02330122  RH  049%=      5-min Rain = 0
KCA1 120152Z 08009KT 23/12 A3007 RMK A01 T02320121  RH  050%=      5-min Rain = 0
KCA1 120153Z 08009KT 23/12 A3007 RMK A01 T02300122  RH  050%=      5-min Rain = 0
KCA1 120154Z 09009KT 23/12 A3007 RMK A01 T02290122  RH  051%=      5-min Rain = 0
KCA1 120155Z 08009KT 23/12 A3007 RMK A01 T02280121  RH  051%=      5-min Rain = 0
KCA1 120156Z 09009KT 23/12 A3007 RMK A01 T02280122  RH  051%=      5-min Rain = 0
KCA1 120157Z 09009KT 23/12 A3007 RMK A01 T02270122  RH  051%=      5-min Rain = 0
KCA1 120158Z 09009KT 23/12 A3007 RMK A01 T02270122  RH  051%=      5-min Rain = 0
KCA1 120159Z 09009KT 23/12 A3007 RMK A01 T02270122  RH  052%=      5-min Rain = 0
KCA1 120200Z 09009KT 23/12 A3007 RMK A01 T02270123  RH  052%=      5-min Rain = 0
KCA1 120201Z 09008KT 23/12 A3007 RMK A01 T02270122  RH  052%=      5-min Rain = 0
KCA1 120202Z 09008KT 23/12 A3007 RMK A01 T02270123  RH  052%=      5-min Rain = 0
KCA1 120203Z 09008KT 23/12 A3007 RMK A01 T02270123  RH  052%=      5-min Rain = 0
KCA1 120204Z 09008KT 23/12 A3007 RMK A01 T02260123  RH  052%=      5-min Rain = 0
KCA1 120205Z 09009KT 23/12 A3007 RMK A01 T02250123  RH  052%=      5-min Rain = 0
KCA1 120206Z 09009KT 23/12 A3007 RMK A01 T02250123  RH  052%=      5-min Rain = 0
KCA1 120207Z 09008KT 23/12 A3007 RMK A01 T02250123  RH  052%=      5-min Rain = 0
KCA1 120208Z 09009KT 22/12 A3007 RMK A01 T02240122  RH  053%=      5-min Rain = 0
KCA1 120209Z 09009KT 22/12 A3007 RMK A01 T02240122  RH  053%=      5-min Rain = 0
KCA1 120210Z 09009KT 22/12 A3007 RMK A01 T02230122  RH  053%=      5-min Rain = 0
KCA1 120211Z 09009KT 22/12 A3007 RMK A01 T02220121  RH  053%=      5-min Rain = 0
KCA1 120212Z 09008KT 22/12 A3007 RMK A01 T02220121  RH  053%=      5-min Rain = 0
KCA1 120213Z 10009KT 22/12 A3007 RMK A01 T02220121  RH  053%=      5-min Rain = 0
KCA1 120214Z 10008KT 22/12 A3007 RMK A01 T02220121  RH  053%=      5-min Rain = 0
KCA1 120215Z 10008KT 22/12 A3007 RMK A01 T02230121  RH  053%=      5-min Rain = 0
KCA1 120216Z 10008KT 22/12 A3007 RMK A01 T02230121  RH  052%=      5-min Rain = 0
KCA1 120217Z 10007KT 22/12 A3007 RMK A01 T02230121  RH  052%=      5-min Rain = 0
KCA1 120218Z 11007KT 22/12 A3007 RMK A01 T02230121  RH  052%=      5-min Rain = 0
KCA1 120219Z 11007KT 22/12 A3007 RMK A01 T02230121  RH  052%=      5-min Rain = 0
KCA1 120220Z 10007KT 22/12 A3007 RMK A01 T02230121  RH  053%=      5-min Rain = 0
KCA1 120221Z 10007KT 22/12 A3007 RMK A01 T02220121  RH  053%=      5-min Rain = 0
KCA1 120222Z 10008KT 22/12 A3007 RMK A01 T02210121  RH  053%=      5-min Rain = 0
KCA1 120223Z 10008KT 22/12 A3007 RMK A01 T02200120  RH  053%=      5-min Rain = 0
KCA1 120224Z 10008KT 22/12 A3007 RMK A01 T02200121  RH  053%=      5-min Rain = 0
KCA1 120225Z 10008KT 22/12 A3008 RMK A01 T02190120  RH  053%=      5-min Rain = 0
KCA1 120226Z 10008KT 22/12 A3008 RMK A01 T02190120  RH  054%=      5-min Rain = 0
KCA1 120227Z 10009KT 22/12 A3008 RMK A01 T02180120  RH  054%=      5-min Rain = 0
KCA1 120228Z 10009KT 22/12 A3008 RMK A01 T02180120  RH  054%=      5-min Rain = 0
KCA1 120229Z 09009KT 22/12 A3008 RMK A01 T02180120  RH  054%=      5-min Rain = 0
KCA1 120230Z 09009KT 22/12 A3008 RMK A01 T02170120  RH  054%=      5-min Rain = 0
KCA1 120231Z 09009KT 22/12 A3008 RMK A01 T02160120  RH  054%=      5-min Rain = 0
KCA1 120232Z 09008KT 22/12 A3008 RMK A01 T02160120  RH  054%=      5-min Rain = 0
KCA1 120233Z 10008KT 22/12 A3008 RMK A01 T02160120  RH  054%=      5-min Rain = 0
KCA1 120234Z 10008KT 22/12 A3008 RMK A01 T02160120  RH  054%=      5-min Rain = 0
KCA1 120235Z 10008KT 22/12 A3008 RMK A01 T02160120  RH  054%=      5-min Rain = 0
KCA1 120236Z 10008KT 22/12 A3007 RMK A01 T02150120  RH  054%=      5-min Rain = 0
KCA1 120237Z 10007KT 22/12 A3008 RMK A01 T02150119  RH  054%=      5-min Rain = 0
KCA1 120238Z 11008KT 22/12 A3008 RMK A01 T02150119  RH  054%=      5-min Rain = 0
KCA1 120239Z 11007KT 22/12 A3008 RMK A01 T02150119  RH  054%=      5-min Rain = 0
KCA1 120240Z 11007KT 22/12 A3008 RMK A01 T02150119  RH  054%=      5-min Rain = 0
KCA1 120241Z 11006KT 22/12 A3008 RMK A01 T02150120  RH  055%=      5-min Rain = 0
KCA1 120242Z 12006KT 21/12 A3008 RMK A01 T02140120  RH  055%=      5-min Rain = 0
KCA1 120243Z 12006KT 21/12 A3008 RMK A01 T02130120  RH  055%=      5-min Rain = 0
KCA1 120244Z 13005KT 21/12 A3008 RMK A01 T02120119  RH  055%=      5-min Rain = 0
KCA1 120245Z 13005KT 21/12 A3008 RMK A01 T02110119  RH  056%=      5-min Rain = 0
KCA1 120246Z 13004KT 21/12 A3008 RMK A01 T02100119  RH  056%=      5-min Rain = 0
KCA1 120247Z 13004KT 21/12 A3008 RMK A01 T02080119  RH  057%=      5-min Rain = 0
KCA1 120248Z 12004KT 21/12 A3008 RMK A01 T02070119  RH  057%=      5-min Rain = 0
KCA1 120249Z 12004KT 21/12 A3008 RMK A01 T02060119  RH  057%=      5-min Rain = 0
KCA1 120250Z 12004KT 21/12 A3008 RMK A01 T02050119  RH  058%=      5-min Rain = 0
KCA1 120251Z 12004KT 20/12 A3008 RMK A01 T02040119  RH  058%=      5-min Rain = 0
KCA1 120252Z 12005KT 20/12 A3008 RMK A01 T02030119  RH  058%=      5-min Rain = 0
KCA1 120253Z 12005KT 20/12 A3008 RMK A01 T02020118  RH  059%=      5-min Rain = 0
KCA1 120254Z 12005KT 20/12 A3008 RMK A01 T02010119  RH  059%=      5-min Rain = 0
KCA1 120255Z 12006KT 20/12 A3008 RMK A01 T02000119  RH  059%=      5-min Rain = 0
KCA1 120256Z 12006KT 20/12 A3008 RMK A01 T02010119  RH  059%=      5-min Rain = 0
KCA1 120257Z 12006KT 20/12 A3008 RMK A01 T02010119  RH  059%=      5-min Rain = 0
KCA1 120258Z 13006KT 20/12 A3008 RMK A01 T02020119  RH  059%=      5-min Rain = 0
KCA1 120259Z 13006KT 20/12 A3008 RMK A01 T02020120  RH  059%=      5-min Rain = 0
KCA1 120300Z 13006KT 20/12 A3008 RMK A01 T02020120  RH  059%=      5-min Rain = 0
KCA1 120301Z 13006KT 20/12 A3008 RMK A01 T02020120  RH  059%=      5-min Rain = 0
KCA1 120302Z 12006KT 20/12 A3008 RMK A01 T02020120  RH  059%=      5-min Rain = 0
KCA1 120303Z 12006KT 20/12 A3008 RMK A01 T02020120  RH  059%=      5-min Rain = 0
KCA1 120304Z 13006KT 20/12 A3008 RMK A01 T02010120  RH  060%=      5-min Rain = 0
KCA1 120305Z 14006KT 20/12 A3008 RMK A01 T02000120  RH  060%=      5-min Rain = 0
KCA1 120306Z 14004KT 20/12 A3008 RMK A01 T02000120  RH  060%=      5-min Rain = 0
KCA1 120307Z 13005KT 20/12 A3008 RMK A01 T02000121  RH  060%=      5-min Rain = 0
KCA1 120308Z 13005KT 20/12 A3008 RMK A01 T01990121  RH  060%=      5-min Rain = 0
KCA1 120309Z 12005KT 20/12 A3008 RMK A01 T02000121  RH  060%=      5-min Rain = 0
KCA1 120310Z 12005KT 20/12 A3008 RMK A01 T01990120  RH  060%=      5-min Rain = 0
KCA1 120311Z 12006KT 20/12 A3008 RMK A01 T01980119  RH  060%=      5-min Rain = 0
KCA1 120312Z 12006KT 20/12 A3008 RMK A01 T01970119  RH  061%=      5-min Rain = 0
KCA1 120313Z 12006KT 20/12 A3008 RMK A01 T01960118  RH  061%=      5-min Rain = 0
KCA1 120314Z 12006KT 19/12 A3008 RMK A01 T01940118  RH  061%=      5-min Rain = 0
KCA1 120315Z 12006KT 19/12 A3008 RMK A01 T01940118  RH  062%=      5-min Rain = 0
KCA1 120316Z 12006KT 19/12 A3008 RMK A01 T01930118  RH  062%=      5-min Rain = 0
KCA1 120317Z 12006KT 19/12 A3008 RMK A01 T01940118  RH  061%=      5-min Rain = 0
KCA1 120318Z 12007KT 20/12 A3008 RMK A01 T01950118  RH  061%=      5-min Rain = 0
KCA1 120319Z 12006KT 20/12 A3008 RMK A01 T01960118  RH  061%=      5-min Rain = 0
KCA1 120320Z 13007KT 20/12 A3008 RMK A01 T01970118  RH  060%=      5-min Rain = 0
KCA1 120321Z 13006KT 20/12 A3008 RMK A01 T02000118  RH  059%=      5-min Rain = 0
KCA1 120322Z 13007KT 20/12 A3008 RMK A01 T02030118  RH  058%=      5-min Rain = 0
KCA1 120323Z 14006KT 21/12 A3008 RMK A01 T02050118  RH  057%=      5-min Rain = 0
KCA1 120324Z 14006KT 21/12 A3008 RMK A01 T02070118  RH  057%=      5-min Rain = 0
KCA1 120325Z 14005KT 21/12 A3008 RMK A01 T02070119  RH  057%=      5-min Rain = 0
KCA1 120326Z 15005KT 21/12 A3008 RMK A01 T02070118  RH  057%=      5-min Rain = 0
KCA1 120327Z 15004KT 21/12 A3008 RMK A01 T02070119  RH  057%=      5-min Rain = 0
KCA1 120328Z 15005KT 21/12 A3008 RMK A01 T02060118  RH  057%=      5-min Rain = 0
KCA1 120329Z 14005KT 21/12 A3008 RMK A01 T02050118  RH  057%=      5-min Rain = 0
KCA1 120330Z 14005KT 20/12 A3008 RMK A01 T02040118  RH  058%=      5-min Rain = 0
KCA1 120331Z 13005KT 20/12 A3008 RMK A01 T02040118  RH  058%=      5-min Rain = 0
KCA1 120332Z 13005KT 20/12 A3008 RMK A01 T02040118  RH  058%=      5-min Rain = 0
KCA1 120333Z 13005KT 20/12 A3008 RMK A01 T02030118  RH  058%=      5-min Rain = 0
KCA1 120334Z 13005KT 20/12 A3008 RMK A01 T02030119  RH  058%=      5-min Rain = 0
KCA1 120335Z 13005KT 20/12 A3008 RMK A01 T02020118  RH  059%=      5-min Rain = 0
KCA1 120336Z 13005KT 20/12 A3008 RMK A01 T02020118  RH  059%=      5-min Rain = 0
KCA1 120337Z 13005KT 20/12 A3008 RMK A01 T02010118  RH  059%=      5-min Rain = 0
KCA1 120338Z 13005KT 20/12 A3008 RMK A01 T02010118  RH  059%=      5-min Rain = 0
KCA1 120339Z 13005KT 20/12 A3008 RMK A01 T02010119  RH  059%=      5-min Rain = 0
KCA1 120340Z 13005KT 20/12 A3008 RMK A01 T02010118  RH  059%=      5-min Rain = 0
KCA1 120341Z 12005KT 20/12 A3009 RMK A01 T02010118  RH  059%=      5-min Rain = 0
KCA1 120342Z 12005KT 20/12 A3009 RMK A01 T02000118  RH  059%=      5-min Rain = 0
KCA1 120343Z 12005KT 20/12 A3009 RMK A01 T01990117  RH  059%=      5-min Rain = 0
KCA1 120344Z 12005KT 20/12 A3009 RMK A01 T01970117  RH  060%=      5-min Rain = 0
KCA1 120345Z 12005KT 20/12 A3009 RMK A01 T01960117  RH  060%=      5-min Rain = 0
KCA1 120346Z 12005KT 20/12 A3009 RMK A01 T01950117  RH  061%=      5-min Rain = 0
KCA1 120347Z 12005KT 19/12 A3009 RMK A01 T01940117  RH  061%=      5-min Rain = 0
KCA1 120348Z 12005KT 19/12 A3009 RMK A01 T01940117  RH  061%=      5-min Rain = 0
KCA1 120349Z 12005KT 19/12 A3009 RMK A01 T01940118  RH  061%=      5-min Rain = 0
KCA1 120350Z 13005KT 19/12 A3009 RMK A01 T01940118  RH  061%=      5-min Rain = 0
KCA1 120351Z 13005KT 20/12 A3009 RMK A01 T01950118  RH  061%=      5-min Rain = 0
KCA1 120352Z 13005KT 20/12 A3009 RMK A01 T01960119  RH  061%=      5-min Rain = 0
KCA1 120353Z 14005KT 20/12 A3009 RMK A01 T01970119  RH  061%=      5-min Rain = 0
KCA1 120354Z 15004KT 20/12 A3009 RMK A01 T01970119  RH  061%=      5-min Rain = 0
KCA1 120355Z 15005KT 20/12 A3009 RMK A01 T01990120  RH  060%=      5-min Rain = 0
KCA1 120356Z 15005KT 20/12 A3009 RMK A01 T01990120  RH  060%=      5-min Rain = 0
KCA1 120357Z 14004KT 20/12 A3009 RMK A01 T02000120  RH  060%=      5-min Rain = 0
KCA1 120358Z 14004KT 20/12 A3009 RMK A01 T02000119  RH  060%=      5-min Rain = 0
KCA1 120359Z 14004KT 20/12 A3009 RMK A01 T02000119  RH  060%=      5-min Rain = 0
KCA1 120400Z 14004KT 20/12 A3009 RMK A01 T02000120  RH  060%=      5-min Rain = 0
KCA1 120401Z 15004KT 20/12 A3009 RMK A01 T02000120  RH  060%=      5-min Rain = 0
KCA1 120402Z 15004KT 20/12 A3009 RMK A01 T01990120  RH  060%=      5-min Rain = 0
KCA1 120403Z 16004KT 20/12 A3009 RMK A01 T01990120  RH  060%=      5-min Rain = 0
KCA1 120404Z 16004KT 20/12 A3009 RMK A01 T01990120  RH  060%=      5-min Rain = 0
KCA1 120405Z 17004KT 20/12 A3009 RMK A01 T01990120  RH  060%=      5-min Rain = 0
KCA1 120406Z 17004KT 20/12 A3009 RMK A01 T01990120  RH  060%=      5-min Rain = 0
KCA1 120407Z 17003KT 20/12 A3009 RMK A01 T02000120  RH  060%=      5-min Rain = 0
KCA1 120408Z 17003KT 20/12 A3009 RMK A01 T02000120  RH  060%=      5-min Rain = 0
KCA1 120409Z 17003KT 20/12 A3009 RMK A01 T02000120  RH  060%=      5-min Rain = 0
KCA1 120410Z 17002KT 20/12 A3009 RMK A01 T02000120  RH  060%=      5-min Rain = 0
KCA1 120411Z 17002KT 20/12 A3009 RMK A01 T02010120  RH  060%=      5-min Rain = 0
KCA1 120412Z 17002KT 20/12 A3009 RMK A01 T02010120  RH  059%=      5-min Rain = 0
KCA1 120413Z 17002KT 20/12 A3009 RMK A01 T02010120  RH  059%=      5-min Rain = 0
KCA1 120414Z 17002KT 20/12 A3009 RMK A01 T02010121  RH  060%=      5-min Rain = 0
KCA1 120415Z 17002KT 20/12 A3009 RMK A01 T02010120  RH  060%=      5-min Rain = 0
KCA1 120416Z 18002KT 20/12 A3009 RMK A01 T02010120  RH  060%=      5-min Rain = 0
KCA1 120417Z 18002KT 20/12 A3009 RMK A01 T02010120  RH  060%=      5-min Rain = 0
KCA1 120418Z 18002KT 20/12 A3009 RMK A01 T02010120  RH  060%=      5-min Rain = 0
KCA1 120419Z 17002KT 20/12 A3009 RMK A01 T02010120  RH  060%=      5-min Rain = 0
KCA1 120420Z 17001KT 20/12 A3009 RMK A01 T02010120  RH  059%=      5-min Rain = 0
KCA1 120421Z 17001KT 20/12 A3009 RMK A01 T02010120  RH  059%=      5-min Rain = 0
KCA1 120422Z 16001KT 20/12 A3009 RMK A01 T02010120  RH  060%=      5-min Rain = 0
KCA1 120423Z 16001KT 20/12 A3009 RMK A01 T02000120  RH  060%=      5-min Rain = 0
KCA1 120424Z 17001KT 20/12 A3009 RMK A01 T01980119  RH  060%=      5-min Rain = 0
KCA1 120425Z 17001KT 20/12 A3009 RMK A01 T01950118  RH  061%=      5-min Rain = 0
KCA1 120426Z 15001KT 19/12 A3009 RMK A01 T01930118  RH  062%=      5-min Rain = 0
KCA1 120427Z 13001KT 19/12 A3009 RMK A01 T01910118  RH  062%=      5-min Rain = 0
KCA1 120428Z 12001KT 19/12 A3009 RMK A01 T01900118  RH  063%=      5-min Rain = 0
KCA1 120429Z 13001KT 19/12 A3009 RMK A01 T01880118  RH  063%=      5-min Rain = 0
KCA1 120430Z 14001KT 19/12 A3009 RMK A01 T01880118  RH  064%=      5-min Rain = 0
KCA1 120431Z 15001KT 19/12 A3009 RMK A01 T01870118  RH  064%=      5-min Rain = 0
KCA1 120432Z 16001KT 19/12 A3009 RMK A01 T01870118  RH  064%=      5-min Rain = 0
KCA1 120433Z 15001KT 19/12 A3009 RMK A01 T01870118  RH  064%=      5-min Rain = 0
KCA1 120434Z 15001KT 19/12 A3009 RMK A01 T01870118  RH  064%=      5-min Rain = 0
KCA1 120435Z 13001KT 19/12 A3009 RMK A01 T01890119  RH  064%=      5-min Rain = 0
KCA1 120436Z 11001KT 19/12 A3009 RMK A01 T01910119  RH  063%=      5-min Rain = 0
KCA1 120437Z 10002KT 19/12 A3009 RMK A01 T01920119  RH  062%=      5-min Rain = 0
KCA1 120438Z 09002KT 19/12 A3009 RMK A01 T01900117  RH  063%=      5-min Rain = 0
KCA1 120439Z 09003KT 19/12 A3009 RMK A01 T01870117  RH  063%=      5-min Rain = 0
KCA1 120440Z 10002KT 19/12 A3009 RMK A01 T01850116  RH  064%=      5-min Rain = 0
KCA1 120441Z 10003KT 18/12 A3009 RMK A01 T01840116  RH  065%=      5-min Rain = 0
KCA1 120442Z 09003KT 18/12 A3009 RMK A01 T01830116  RH  065%=      5-min Rain = 0
KCA1 120443Z 09003KT 18/12 A3009 RMK A01 T01820116  RH  065%=      5-min Rain = 0
KCA1 120444Z 09003KT 18/12 A3009 RMK A01 T01820116  RH  066%=      5-min Rain = 0
KCA1 120445Z 09003KT 18/12 A3009 RMK A01 T01820117  RH  066%=      5-min Rain = 0
KCA1 120446Z 09004KT 18/12 A3009 RMK A01 T01820116  RH  065%=      5-min Rain = 0
KCA1 120447Z 09004KT 18/12 A3009 RMK A01 T01820116  RH  065%=      5-min Rain = 0
KCA1 120448Z 09004KT 18/12 A3009 RMK A01 T01810116  RH  066%=      5-min Rain = 0
KCA1 120449Z 09004KT 18/12 A3009 RMK A01 T01800116  RH  066%=      5-min Rain = 0
KCA1 120450Z 09004KT 18/12 A3009 RMK A01 T01790116  RH  066%=      5-min Rain = 0
KCA1 120451Z 08004KT 18/12 A3009 RMK A01 T01790116  RH  067%=      5-min Rain = 0
KCA1 120452Z 08005KT 18/12 A3009 RMK A01 T01780116  RH  067%=      5-min Rain = 0
KCA1 120453Z 07006KT 18/12 A3009 RMK A01 T01770115  RH  067%=      5-min Rain = 0
KCA1 120454Z 07006KT 18/12 A3009 RMK A01 T01750115  RH  068%=      5-min Rain = 0
KCA1 120455Z 07006KT 17/11 A3009 RMK A01 T01730114  RH  068%=      5-min Rain = 0
KCA1 120456Z 07006KT 17/11 A3009 RMK A01 T01710114  RH  069%=      5-min Rain = 0
KCA1 120457Z 07006KT 17/11 A3009 RMK A01 T01700113  RH  069%=      5-min Rain = 0
KCA1 120458Z 08005KT 17/11 A3009 RMK A01 T01690113  RH  070%=      5-min Rain = 0
KCA1 120459Z 08005KT 17/11 A3009 RMK A01 T01670113  RH  070%=      5-min Rain = 0

Page generated in 0.2416 seconds.